Wetterdaten: Montag, 05.09.2016
Datum Zeit Temp. Aussen Temp. o. S. +5cm Feuchte Auss BlattFeu 1 Luftdruck Regen Sonnenschein Regendauer Solar Windben Empfang
05.09.2016 00:00 17,3 C 17,2 C 15,6 C 86 % 12 lf 1013,2 hPa 0,0 l/m 0 min 2 min 5 W/m 14,6 km/h (3 Bft) 97,87 %
05.09.2016 00:02 17,3 C 17,2 C 15,6 C 86 % 12 lf 1013,2 hPa 0,0 l/m 0 min 2 min 5 W/m 20,9 km/h (4 Bft) 100,00 %
05.09.2016 00:05 17,3 C 16,7 C 15,0 C 86 % 15 lf 1013,2 hPa 0,0 l/m 0 min 2 min 5 W/m 14,6 km/h (3 Bft) 98,59 %
05.09.2016 00:06 17,3 C 16,7 C 15,0 C 86 % 15 lf 1013,2 hPa 0,0 l/m 0 min 0 min 5 W/m 20,9 km/h (4 Bft) 95,83 %
05.09.2016 00:08 17,3 C 16,7 C 15,0 C 86 % 13 lf 1013,2 hPa 0,0 l/m 0 min 0 min 5 W/m 18,8 km/h (3 Bft) 97,83 %
05.09.2016 00:10 17,3 C 16,7 C 15,0 C 86 % 9 lf 1013,2 hPa 0,0 l/m 0 min 0 min 5 W/m 20,9 km/h (4 Bft) 97,87 %
05.09.2016 00:12 17,3 C 16,7 C 15,0 C 87 % 4 lf 1013,2 hPa 0,0 l/m 0 min 0 min 5 W/m 14,6 km/h (3 Bft) 100,00 %
05.09.2016 00:14 17,3 C 17,2 C 15,0 C 87 % 9 lf 1013,2 hPa 0,0 l/m 0 min 0 min 5 W/m 25,1 km/h (4 Bft) 97,87 %
05.09.2016 00:16 17,3 C 17,2 C 15,0 C 87 % 15 lf 1013,3 hPa 0,0 l/m 0 min 2 min 5 W/m 18,8 km/h (3 Bft) 97,87 %
05.09.2016 00:18 17,2 C 16,7 C 15,0 C 87 % 15 lf 1013,3 hPa 0,0 l/m 0 min 2 min 5 W/m 18,8 km/h (3 Bft) 93,62 %
05.09.2016 00:20 17,2 C 16,7 C 15,0 C 87 % 13 lf 1013,3 hPa 0,0 l/m 0 min 0 min 5 W/m 31,4 km/h (5 Bft) 93,48 %
05.09.2016 00:22 17,2 C 16,7 C 15,0 C 87 % 10 lf 1013,3 hPa 0,0 l/m 0 min 0 min 5 W/m 18,8 km/h (3 Bft) 97,87 %
05.09.2016 00:24 17,2 C 16,7 C 15,0 C 87 % 4 lf 1013,3 hPa 0,0 l/m 0 min 0 min 5 W/m 14,6 km/h (3 Bft) 95,74 %
05.09.2016 00:26 17,2 C 16,7 C 15,0 C 87 % 2 lf 1013,3 hPa 0,0 l/m 0 min 0 min 5 W/m 23,0 km/h (4 Bft) 97,87 %
05.09.2016 00:28 17,2 C 17,2 C 15,0 C 87 % 1 lf 1013,4 hPa 0,0 l/m 0 min 0 min 5 W/m 29,3 km/h (5 Bft) 97,87 %
05.09.2016 00:30 17,2 C 17,2 C 15,0 C 87 % 1 lf 1013,4 hPa 0,0 l/m 0 min 0 min 5 W/m 16,7 km/h (3 Bft) 95,74 %
05.09.2016 00:32 17,2 C 16,7 C 15,0 C 87 % 1 lf 1013,4 hPa 0,0 l/m 0 min 0 min 5 W/m 16,7 km/h (3 Bft) 95,74 %
05.09.2016 00:34 17,2 C 17,2 C 15,6 C 87 % 1 lf 1013,4 hPa 0,0 l/m 0 min 0 min 5 W/m 31,4 km/h (5 Bft) 95,74 %
05.09.2016 00:36 17,2 C 17,2 C 15,6 C 87 % 1 lf 1013,4 hPa 0,0 l/m 0 min 0 min 5 W/m 12,6 km/h (3 Bft) 93,62 %
05.09.2016 00:38 17,1 C 17,2 C 15,6 C 87 % 3 lf 1013,4 hPa 0,0 l/m 0 min 0 min 5 W/m 14,6 km/h (3 Bft) 95,74 %
05.09.2016 00:40 17,1 C 16,7 C 15,0 C 87 % 15 lf 1013,4 hPa 0,0 l/m 0 min 2 min 5 W/m 16,7 km/h (3 Bft) 93,62 %
05.09.2016 00:42 17,1 C 16,7 C 15,0 C 88 % 15 lf 1013,5 hPa 0,0 l/m 0 min 2 min 5 W/m 10,5 km/h (2 Bft) 93,48 %
05.09.2016 00:44 17,1 C 16,1 C 15,0 C 88 % 15 lf 1013,5 hPa 0,0 l/m 0 min 0 min 5 W/m 12,6 km/h (3 Bft) 91,49 %
05.09.2016 00:46 17,1 C 16,1 C 15,0 C 88 % 15 lf 1013,5 hPa 0,0 l/m 0 min 0 min 5 W/m 12,6 km/h (3 Bft) 95,74 %
05.09.2016 00:48 17,1 C 16,1 C 15,0 C 88 % 15 lf 1013,5 hPa 0,0 l/m 0 min 0 min 5 W/m 14,6 km/h (3 Bft) 93,62 %
05.09.2016 00:50 17,1 C 16,7 C 15,0 C 88 % 14 lf 1013,5 hPa 0,0 l/m 0 min 0 min 5 W/m 14,6 km/h (3 Bft) 95,74 %
05.09.2016 00:52 17,1 C 16,7 C 15,0 C 88 % 12 lf 1013,5 hPa 0,0 l/m 0 min 0 min 5 W/m 16,7 km/h (3 Bft) 95,83 %
05.09.2016 00:54 17,1 C 16,7 C 15,0 C 88 % 9 lf 1013,5 hPa 0,0 l/m 0 min 0 min 5 W/m 12,6 km/h (3 Bft) 95,65 %
05.09.2016 00:56 17,1 C 16,7 C 15,0 C 88 % 3 lf 1013,5 hPa 0,0 l/m 0 min 0 min 5 W/m 14,6 km/h (3 Bft) 95,74 %
05.09.2016 00:58 17,1 C 16,7 C 15,0 C 88 % 1 lf 1013,6 hPa 0,0 l/m 0 min 2 min 5 W/m 12,6 km/h (3 Bft) 95,74 %
05.09.2016 01:00 17,1 C 16,7 C 15,0 C 89 % 1 lf 1013,5 hPa 0,0 l/m 0 min 0 min 5 W/m 10,5 km/h (2 Bft) 95,74 %
05.09.2016 01:02 17,0 C 16,7 C 15,0 C 89 % 3 lf 1013,5 hPa 0,0 l/m 0 min 2 min 5 W/m 14,6 km/h (3 Bft) 91,49 %
05.09.2016 01:04 17,0 C 16,7 C 15,0 C 89 % 4 lf 1013,5 hPa 0,0 l/m 0 min 2 min 5 W/m 14,6 km/h (3 Bft) 93,62 %
05.09.2016 01:06 17,0 C 16,1 C 15,0 C 89 % 3 lf 1013,5 hPa 0,0 l/m 0 min 2 min 5 W/m 18,8 km/h (3 Bft) 95,65 %
05.09.2016 01:08 17,0 C 16,1 C 14,4 C 89 % 1 lf 1013,5 hPa 0,0 l/m 0 min 0 min 5 W/m 14,6 km/h (3 Bft) 91,49 %
05.09.2016 01:10 17,0 C 16,1 C 14,4 C 89 % 1 lf 1013,5 hPa 0,0 l/m 0 min 0 min 5 W/m 16,7 km/h (3 Bft) 97,87 %
05.09.2016 01:12 16,9 C 16,1 C 14,4 C 89 % 1 lf 1013,5 hPa 0,0 l/m 0 min 0 min 5 W/m 18,8 km/h (3 Bft) 93,62 %
05.09.2016 01:14 16,9 C 16,1 C 14,4 C 89 % 1 lf 1013,5 hPa 0,0 l/m 0 min 0 min 5 W/m 12,6 km/h (3 Bft) 95,74 %
05.09.2016 01:16 16,9 C 16,1 C 14,4 C 89 % 1 lf 1013,5 hPa 0,0 l/m 0 min 0 min 5 W/m 16,7 km/h (3 Bft) 95,65 %
05.09.2016 01:18 16,9 C 16,1 C 15,0 C 89 % 1 lf 1013,6 hPa 0,0 l/m 0 min 0 min 5 W/m 18,8 km/h (3 Bft) 93,62 %
05.09.2016 01:20 16,9 C 16,7 C 15,0 C 89 % 1 lf 1013,5 hPa 0,0 l/m 0 min 0 min 5 W/m 14,6 km/h (3 Bft) 97,87 %
05.09.2016 01:22 16,8 C 16,7 C 15,0 C 89 % 1 lf 1013,6 hPa 0,0 l/m 0 min 0 min 5 W/m 16,7 km/h (3 Bft) 100,00 %
05.09.2016 01:24 16,8 C 16,7 C 15,0 C 89 % 1 lf 1013,6 hPa 0,0 l/m 0 min 0 min 5 W/m 12,6 km/h (3 Bft) 91,49 %
05.09.2016 01:26 16,8 C 16,7 C 15,0 C 89 % 1 lf 1013,5 hPa 0,0 l/m 0 min 0 min 5 W/m 12,6 km/h (3 Bft) 95,74 %
05.09.2016 01:28 16,8 C 16,7 C 15,0 C 89 % 1 lf 1013,5 hPa 0,0 l/m 0 min 0 min 5 W/m 14,6 km/h (3 Bft) 95,65 %
05.09.2016 01:30 16,8 C 16,7 C 15,0 C 89 % 1 lf 1013,5 hPa 0,0 l/m 0 min 0 min 5 W/m 14,6 km/h (3 Bft) 97,87 %
05.09.2016 01:32 16,8 C 16,7 C 15,0 C 90 % 1 lf 1013,6 hPa 0,0 l/m 0 min 0 min 5 W/m 14,6 km/h (3 Bft) 97,87 %
05.09.2016 01:34 16,8 C 16,7 C 15,0 C 90 % 1 lf 1013,6 hPa 0,0 l/m 0 min 0 min 5 W/m 16,7 km/h (3 Bft) 95,74 %
05.09.2016 01:36 16,8 C 16,7 C 15,0 C 90 % 1 lf 1013,6 hPa 0,0 l/m 0 min 0 min 5 W/m 18,8 km/h (3 Bft) 88,57 %
05.09.2016 01:38 16,7 C 16,7 C 15,0 C 90 % 1 lf 1013,6 hPa 0,0 l/m 0 min 0 min 5 W/m 18,8 km/h (3 Bft) 96,23 %
05.09.2016 01:40 16,7 C 16,7 C 15,0 C 90 % 1 lf 1013,6 hPa 0,0 l/m 0 min 0 min 5 W/m 20,9 km/h (4 Bft) 97,87 %
05.09.2016 01:42 16,7 C 16,7 C 15,0 C 90 % 1 lf 1013,7 hPa 0,0 l/m 0 min 0 min 5 W/m 14,6 km/h (3 Bft) 89,13 %
05.09.2016 01:44 16,7 C 16,1 C 15,0 C 90 % 1 lf 1013,7 hPa 0,0 l/m 0 min 0 min 5 W/m 27,2 km/h (4 Bft) 93,62 %
05.09.2016 01:46 16,7 C 16,1 C 14,4 C 90 % 1 lf 1013,7 hPa 0,0 l/m 0 min 0 min 5 W/m 14,6 km/h (3 Bft) 95,12 %
05.09.2016 01:48 16,6 C 16,1 C 14,4 C 90 % 1 lf 1013,7 hPa 0,0 l/m 0 min 0 min 5 W/m 25,1 km/h (4 Bft) 94,34 %
05.09.2016 01:50 16,6 C 16,1 C 14,4 C 90 % 1 lf 1013,7 hPa 0,0 l/m 0 min 0 min 5 W/m 18,8 km/h (3 Bft) 95,74 %
05.09.2016 01:52 16,6 C 16,1 C 15,0 C 90 % 1 lf 1013,8 hPa 0,0 l/m 0 min 0 min 5 W/m 16,7 km/h (3 Bft) 93,62 %
05.09.2016 01:54 16,6 C 16,1 C 15,0 C 90 % 1 lf 1013,9 hPa 0,0 l/m 0 min 0 min 5 W/m 12,6 km/h (3 Bft) 93,48 %
05.09.2016 01:56 16,5 C 16,1 C 15,0 C 90 % 1 lf 1013,8 hPa 0,0 l/m 0 min 0 min 5 W/m 18,8 km/h (3 Bft) 93,62 %
05.09.2016 01:58 16,5 C 16,1 C 14,4 C 90 % 1 lf 1013,9 hPa 0,0 l/m 0 min 0 min 5 W/m 23,0 km/h (4 Bft) 95,74 %
05.09.2016 02:00 16,5 C 16,1 C 14,4 C 90 % 1 lf 1013,8 hPa 0,0 l/m 0 min 0 min 5 W/m 16,7 km/h (3 Bft) 95,74 %
05.09.2016 02:02 16,5 C 16,1 C 14,4 C 90 % 1 lf 1014,0 hPa 0,0 l/m 0 min 0 min 5 W/m 23,0 km/h (4 Bft) 97,56 %
05.09.2016 02:04 16,5 C 16,1 C 14,4 C 91 % 1 lf 1013,9 hPa 0,0 l/m 0 min 0 min 5 W/m 18,8 km/h (3 Bft) 96,23 %
05.09.2016 02:06 16,4 C 16,1 C 14,4 C 91 % 1 lf 1013,9 hPa 0,0 l/m 0 min 0 min 5 W/m 14,6 km/h (3 Bft) 98,08 %
05.09.2016 02:08 16,4 C 16,1 C 14,4 C 91 % 1 lf 1013,9 hPa 0,0 l/m 0 min 0 min 5 W/m 16,7 km/h (3 Bft) 95,74 %
05.09.2016 02:10 16,4 C 15,6 C 14,4 C 91 % 1 lf 1013,9 hPa 0,0 l/m 0 min 0 min 5 W/m 16,7 km/h (3 Bft) 97,87 %
05.09.2016 02:12 16,4 C 15,6 C 14,4 C 91 % 1 lf 1013,9 hPa 0,0 l/m 0 min 0 min 5 W/m 14,6 km/h (3 Bft) 95,74 %
05.09.2016 02:14 16,3 C 15,6 C 14,4 C 91 % 1 lf 1014,0 hPa 0,0 l/m 0 min 0 min 5 W/m 14,6 km/h (3 Bft) 97,87 %
05.09.2016 02:16 16,3 C 15,6 C 13,9 C 91 % 2 lf 1014,0 hPa 0,0 l/m 0 min 0 min 5 W/m 8,4 km/h (2 Bft) 95,65 %
05.09.2016 02:18 16,3 C 15,6 C 13,9 C 91 % 2 lf 1013,9 hPa 0,0 l/m 0 min 0 min 5 W/m 14,6 km/h (3 Bft) 93,62 %
05.09.2016 02:20 16,3 C 15,6 C 13,9 C 91 % 2 lf 1014,0 hPa 0,0 l/m 0 min 0 min 5 W/m 16,7 km/h (3 Bft) 89,36 %
05.09.2016 02:22 16,2 C 15,6 C 13,9 C 91 % 2 lf 1014,0 hPa 0,0 l/m 0 min 0 min 5 W/m 20,9 km/h (4 Bft) 95,74 %
05.09.2016 02:24 16,2 C 15,6 C 13,9 C 91 % 2 lf 1014,0 hPa 0,0 l/m 0 min 0 min 5 W/m 16,7 km/h (3 Bft) 97,87 %
05.09.2016 02:26 16,2 C 15,6 C 13,9 C 91 % 2 lf 1014,0 hPa 0,0 l/m 0 min 0 min 5 W/m 12,6 km/h (3 Bft) 100,00 %
05.09.2016 02:28 16,2 C 15,6 C 13,9 C 91 % 2 lf 1014,0 hPa 0,0 l/m 0 min 0 min 5 W/m 16,7 km/h (3 Bft) 100,00 %
05.09.2016 02:30 16,1 C 15,6 C 13,9 C 91 % 2 lf 1014,0 hPa 0,0 l/m 0 min 0 min 5 W/m 16,7 km/h (3 Bft) 97,87 %
05.09.2016 02:32 16,1 C 15,6 C 13,9 C 91 % 2 lf 1014,1 hPa 0,0 l/m 0 min 0 min 5 W/m 12,6 km/h (3 Bft) 93,62 %
05.09.2016 02:34 16,1 C 15,6 C 13,9 C 92 % 2 lf 1014,1 hPa 0,0 l/m 0 min 0 min 5 W/m 14,6 km/h (3 Bft) 95,74 %
05.09.2016 02:36 16,1 C 15,6 C 13,9 C 92 % 2 lf 1014,1 hPa 0,0 l/m 0 min 0 min 5 W/m 12,6 km/h (3 Bft) 95,74 %
05.09.2016 02:38 16,0 C 15,6 C 13,9 C 92 % 2 lf 1014,1 hPa 0,0 l/m 0 min 0 min 5 W/m 12,6 km/h (3 Bft) 95,74 %
05.09.2016 02:40 16,0 C 15,6 C 13,9 C 92 % 2 lf 1014,1 hPa 0,0 l/m 0 min 0 min 5 W/m 12,6 km/h (3 Bft) 93,48 %
05.09.2016 02:42 15,9 C 15,6 C 13,9 C 92 % 2 lf 1014,1 hPa 0,0 l/m 0 min 0 min 5 W/m 14,6 km/h (3 Bft) 97,87 %
05.09.2016 02:44 15,9 C 15,6 C 13,9 C 92 % 2 lf 1014,1 hPa 0,0 l/m 0 min 0 min 5 W/m 12,6 km/h (3 Bft) 97,87 %
05.09.2016 02:46 15,9 C 15,6 C 13,9 C 92 % 2 lf 1014,1 hPa 0,0 l/m 0 min 0 min 5 W/m 10,5 km/h (2 Bft) 95,74 %
05.09.2016 02:48 15,9 C 15,6 C 13,9 C 92 % 2 lf 1014,1 hPa 0,0 l/m 0 min 0 min 5 W/m 12,6 km/h (3 Bft) 97,87 %
05.09.2016 02:50 15,9 C 15,6 C 13,9 C 92 % 2 lf 1014,1 hPa 0,0 l/m 0 min 0 min 5 W/m 6,3 km/h (2 Bft) 93,48 %
05.09.2016 02:52 15,9 C 15,6 C 13,9 C 92 % 2 lf 1014,1 hPa 0,0 l/m 0 min 0 min 5 W/m 12,6 km/h (3 Bft) 97,87 %
05.09.2016 02:54 15,9 C 15,6 C 13,9 C 92 % 2 lf 1014,1 hPa 0,0 l/m 0 min 0 min 5 W/m 12,6 km/h (3 Bft) 97,87 %
05.09.2016 02:56 15,8 C 15,6 C 13,9 C 92 % 2 lf 1014,1 hPa 0,0 l/m 0 min 0 min 5 W/m 12,6 km/h (3 Bft) 97,87 %
05.09.2016 02:58 15,8 C 15,6 C 13,9 C 92 % 2 lf 1014,1 hPa 0,0 l/m 0 min 0 min 5 W/m 10,5 km/h (2 Bft) 97,87 %
05.09.2016 03:00 15,8 C 15,6 C 13,9 C 92 % 2 lf 1014,1 hPa 0,0 l/m 0 min 0 min 5 W/m 14,6 km/h (3 Bft) 97,87 %
05.09.2016 03:02 15,8 C 15,6 C 13,9 C 93 % 2 lf 1014,1 hPa 0,0 l/m 0 min 0 min 5 W/m 12,6 km/h (3 Bft) 97,83 %
05.09.2016 03:04 15,8 C 15,6 C 13,9 C 93 % 2 lf 1014,1 hPa 0,0 l/m 0 min 0 min 5 W/m 10,5 km/h (2 Bft) 97,87 %
05.09.2016 03:06 15,8 C 15,6 C 13,9 C 93 % 3 lf 1014,2 hPa 0,0 l/m 0 min 2 min 5 W/m 6,3 km/h (2 Bft) 100,00 %
05.09.2016 03:08 15,8 C 15,6 C 14,4 C 93 % 3 lf 1014,3 hPa 0,0 l/m 0 min 2 min 5 W/m 8,4 km/h (2 Bft) 100,00 %
05.09.2016 03:10 15,8 C 15,6 C 14,4 C 93 % 3 lf 1014,2 hPa 0,0 l/m 0 min 0 min 5 W/m 8,4 km/h (2 Bft) 100,00 %
05.09.2016 03:12 15,8 C 15,6 C 14,4 C 93 % 15 lf 1014,3 hPa 0,0 l/m 0 min 2 min 5 W/m 14,6 km/h (3 Bft) 93,62 %
05.09.2016 03:14 15,8 C 15,6 C 13,9 C 93 % 15 lf 1014,2 hPa 0,2 l/m 0 min 2 min 5 W/m 14,6 km/h (3 Bft) 100,00 %
05.09.2016 03:16 15,8 C 15,0 C 13,9 C 93 % 15 lf 1014,3 hPa 0,0 l/m 0 min 2 min 5 W/m 14,6 km/h (3 Bft) 100,00 %
05.09.2016 03:18 15,8 C 15,0 C 13,9 C 93 % 15 lf 1014,3 hPa 0,0 l/m 0 min 0 min 5 W/m 10,5 km/h (2 Bft) 100,00 %
05.09.2016 03:20 15,8 C 15,0 C 13,9 C 93 % 15 lf 1014,4 hPa 0,0 l/m 0 min 0 min 5 W/m 12,6 km/h (3 Bft) 100,00 %
05.09.2016 03:22 15,8 C 15,6 C 13,9 C 94 % 15 lf 1014,4 hPa 0,0 l/m 0 min 0 min 5 W/m 16,7 km/h (3 Bft) 100,00 %
05.09.2016 03:24 15,8 C 15,6 C 13,9 C 94 % 15 lf 1014,4 hPa 0,0 l/m 0 min 0 min 5 W/m 12,6 km/h (3 Bft) 97,14 %
05.09.2016 03:26 15,8 C 15,6 C 13,9 C 94 % 15 lf 1014,2 hPa 0,0 l/m 0 min 0 min 5 W/m 14,6 km/h (3 Bft) 100,00 %
05.09.2016 03:28 15,8 C 15,6 C 13,9 C 94 % 15 lf 1014,2 hPa 0,0 l/m 0 min 0 min 5 W/m 16,7 km/h (3 Bft) 100,00 %
05.09.2016 03:30 15,8 C 15,6 C 13,9 C 94 % 15 lf 1014,3 hPa 0,0 l/m 0 min 0 min 5 W/m 14,6 km/h (3 Bft) 97,87 %
05.09.2016 03:32 15,8 C 15,6 C 14,4 C 94 % 14 lf 1014,4 hPa 0,0 l/m 0 min 0 min 5 W/m 16,7 km/h (3 Bft) 100,00 %
05.09.2016 03:34 15,8 C 15,6 C 14,4 C 94 % 13 lf 1014,3 hPa 0,0 l/m 0 min 0 min 5 W/m 12,6 km/h (3 Bft) 100,00 %
05.09.2016 03:36 15,8 C 15,6 C 14,4 C 94 % 13 lf 1014,4 hPa 0,0 l/m 0 min 0 min 5 W/m 12,6 km/h (3 Bft) 100,00 %
05.09.2016 03:38 15,8 C 15,6 C 14,4 C 94 % 11 lf 1014,4 hPa 0,0 l/m 0 min 0 min 5 W/m 10,5 km/h (2 Bft) 100,00 %
05.09.2016 03:40 15,8 C 15,6 C 14,4 C 94 % 10 lf 1014,4 hPa 0,0 l/m 0 min 0 min 5 W/m 12,6 km/h (3 Bft) 95,74 %
05.09.2016 03:42 15,9 C 15,6 C 13,9 C 94 % 8 lf 1014,4 hPa 0,0 l/m 0 min 0 min 5 W/m 8,4 km/h (2 Bft) 95,74 %
05.09.2016 03:44 15,9 C 15,6 C 13,9 C 94 % 6 lf 1014,3 hPa 0,0 l/m 0 min 0 min 5 W/m 16,7 km/h (3 Bft) 100,00 %
05.09.2016 03:46 15,9 C 15,6 C 13,9 C 94 % 4 lf 1014,4 hPa 0,0 l/m 0 min 0 min 5 W/m 14,6 km/h (3 Bft) 100,00 %
05.09.2016 03:48 15,9 C 15,6 C 13,9 C 94 % 4 lf 1014,4 hPa 0,0 l/m 0 min 0 min 5 W/m 16,7 km/h (3 Bft) 100,00 %
05.09.2016 03:50 15,8 C 15,6 C 13,9 C 94 % 3 lf 1014,3 hPa 0,0 l/m 0 min 0 min 5 W/m 14,6 km/h (3 Bft) 100,00 %
05.09.2016 03:52 15,8 C 15,6 C 13,9 C 94 % 3 lf 1014,3 hPa 0,0 l/m 0 min 0 min 5 W/m 14,6 km/h (3 Bft) 97,87 %
05.09.2016 03:54 15,8 C 15,6 C 13,9 C 94 % 3 lf 1014,4 hPa 0,0 l/m 0 min 0 min 5 W/m 16,7 km/h (3 Bft) 95,74 %
05.09.2016 03:56 15,8 C 15,6 C 13,9 C 94 % 2 lf 1014,4 hPa 0,0 l/m 0 min 0 min 5 W/m 16,7 km/h (3 Bft) 100,00 %
05.09.2016 03:58 15,8 C 15,6 C 13,9 C 94 % 2 lf 1014,4 hPa 0,0 l/m 0 min 0 min 5 W/m 12,6 km/h (3 Bft) 95,74 %
05.09.2016 04:00 15,8 C 15,6 C 13,9 C 94 % 2 lf 1014,4 hPa 0,0 l/m 0 min 0 min 5 W/m 18,8 km/h (3 Bft) 97,83 %
05.09.2016 04:05 15,8 C 15,6 C 13,9 C 94 % 2 lf 1014,6 hPa 0,0 l/m 0 min 0 min 5 W/m 18,8 km/h (3 Bft) 97,10 %
05.09.2016 04:06 15,8 C 15,6 C 13,9 C 94 % 2 lf 1014,6 hPa 0,0 l/m 0 min 0 min 5 W/m 12,6 km/h (3 Bft) 86,96 %
05.09.2016 04:08 15,8 C 15,6 C 13,9 C 94 % 2 lf 1014,6 hPa 0,0 l/m 0 min 0 min 5 W/m 12,6 km/h (3 Bft) 100,00 %
05.09.2016 04:10 15,7 C 15,6 C 13,9 C 94 % 2 lf 1014,6 hPa 0,0 l/m 0 min 0 min 5 W/m 10,5 km/h (2 Bft) 89,36 %
05.09.2016 04:12 15,7 C 15,6 C 13,9 C 94 % 2 lf 1014,5 hPa 0,0 l/m 0 min 0 min 5 W/m 16,7 km/h (3 Bft) 93,62 %
05.09.2016 04:14 15,7 C 15,6 C 13,9 C 94 % 2 lf 1014,5 hPa 0,0 l/m 0 min 0 min 5 W/m 12,6 km/h (3 Bft) 95,65 %
05.09.2016 04:16 15,7 C 15,6 C 13,9 C 95 % 2 lf 1014,6 hPa 0,0 l/m 0 min 0 min 5 W/m 16,7 km/h (3 Bft) 91,49 %
05.09.2016 04:18 15,7 C 15,6 C 13,9 C 95 % 2 lf 1014,6 hPa 0,0 l/m 0 min 0 min 5 W/m 18,8 km/h (3 Bft) 93,62 %
05.09.2016 04:20 15,7 C 15,6 C 13,9 C 95 % 2 lf 1014,6 hPa 0,0 l/m 0 min 0 min 5 W/m 16,7 km/h (3 Bft) 95,74 %
05.09.2016 04:22 15,6 C 15,6 C 13,9 C 95 % 2 lf 1014,6 hPa 0,0 l/m 0 min 0 min 5 W/m 14,6 km/h (3 Bft) 93,62 %
05.09.2016 04:24 15,6 C 15,6 C 13,9 C 94 % 2 lf 1014,6 hPa 0,0 l/m 0 min 0 min 5 W/m 16,7 km/h (3 Bft) 93,62 %
05.09.2016 04:26 15,6 C 15,6 C 13,9 C 95 % 2 lf 1014,7 hPa 0,0 l/m 0 min 0 min 5 W/m 23,0 km/h (4 Bft) 95,65 %
05.09.2016 04:28 15,6 C 15,6 C 13,9 C 95 % 2 lf 1014,7 hPa 0,0 l/m 0 min 0 min 5 W/m 18,8 km/h (3 Bft) 93,62 %
05.09.2016 04:30 15,6 C 15,0 C 13,9 C 95 % 2 lf 1014,7 hPa 0,0 l/m 0 min 0 min 5 W/m 18,8 km/h (3 Bft) 91,49 %
05.09.2016 04:32 15,6 C 15,0 C 13,9 C 95 % 2 lf 1014,7 hPa 0,0 l/m 0 min 0 min 5 W/m 14,6 km/h (3 Bft) 93,62 %
05.09.2016 04:34 15,6 C 15,0 C 13,9 C 95 % 2 lf 1014,7 hPa 0,0 l/m 0 min 0 min 5 W/m 16,7 km/h (3 Bft) 89,36 %
05.09.2016 04:36 15,5 C 15,6 C 13,9 C 94 % 2 lf 1014,8 hPa 0,0 l/m 0 min 0 min 5 W/m 14,6 km/h (3 Bft) 91,43 %
05.09.2016 04:38 15,5 C 15,6 C 13,9 C 94 % 2 lf 1014,8 hPa 0,0 l/m 0 min 0 min 5 W/m 16,7 km/h (3 Bft) 90,38 %
05.09.2016 04:40 15,5 C 15,6 C 13,9 C 94 % 2 lf 1014,8 hPa 0,0 l/m 0 min 0 min 5 W/m 18,8 km/h (3 Bft) 91,49 %
05.09.2016 04:42 15,5 C 15,6 C 13,9 C 94 % 2 lf 1014,8 hPa 0,0 l/m 0 min 0 min 5 W/m 18,8 km/h (3 Bft) 91,49 %
05.09.2016 04:44 15,5 C 15,6 C 13,9 C 95 % 2 lf 1014,8 hPa 0,0 l/m 0 min 0 min 5 W/m 14,6 km/h (3 Bft) 91,49 %
05.09.2016 04:46 15,5 C 15,6 C 13,9 C 95 % 2 lf 1014,8 hPa 0,0 l/m 0 min 0 min 5 W/m 10,5 km/h (2 Bft) 87,80 %
05.09.2016 04:48 15,5 C 15,0 C 13,9 C 95 % 2 lf 1014,8 hPa 0,0 l/m 0 min 0 min 5 W/m 14,6 km/h (3 Bft) 90,57 %
05.09.2016 04:50 15,5 C 15,0 C 13,9 C 95 % 3 lf 1014,8 hPa 0,0 l/m 0 min 0 min 5 W/m 8,4 km/h (2 Bft) 89,13 %
05.09.2016 04:52 15,4 C 15,0 C 13,9 C 95 % 3 lf 1014,9 hPa 0,0 l/m 0 min 0 min 5 W/m 16,7 km/h (3 Bft) 93,62 %
05.09.2016 04:54 15,4 C 15,0 C 13,9 C 95 % 3 lf 1014,9 hPa 0,0 l/m 0 min 0 min 5 W/m 16,7 km/h (3 Bft) 93,62 %
05.09.2016 04:56 15,4 C 15,0 C 13,9 C 95 % 3 lf 1014,9 hPa 0,0 l/m 0 min 0 min 5 W/m 14,6 km/h (3 Bft) 91,49 %
05.09.2016 04:58 15,4 C 15,0 C 13,9 C 95 % 3 lf 1014,9 hPa 0,0 l/m 0 min 0 min 5 W/m 12,6 km/h (3 Bft) 91,49 %
05.09.2016 05:00 15,4 C 15,0 C 13,9 C 95 % 3 lf 1014,9 hPa 0,0 l/m 0 min 0 min 5 W/m 10,5 km/h (2 Bft) 95,74 %
05.09.2016 05:02 15,4 C 15,0 C 13,3 C 95 % 3 lf 1014,9 hPa 0,0 l/m 0 min 0 min 5 W/m 10,5 km/h (2 Bft) 92,68 %
05.09.2016 05:04 15,4 C 15,0 C 13,3 C 95 % 3 lf 1014,9 hPa 0,0 l/m 0 min 0 min 5 W/m 8,4 km/h (2 Bft) 97,83 %
05.09.2016 05:06 15,4 C 15,0 C 13,3 C 95 % 3 lf 1014,9 hPa 0,0 l/m 0 min 0 min 5 W/m 10,5 km/h (2 Bft) 98,31 %
05.09.2016 05:08 15,4 C 15,0 C 13,3 C 95 % 3 lf 1015,0 hPa 0,0 l/m 0 min 0 min 5 W/m 12,6 km/h (3 Bft) 93,62 %
05.09.2016 05:10 15,3 C 15,0 C 13,3 C 95 % 3 lf 1015,0 hPa 0,0 l/m 0 min 0 min 5 W/m 12,6 km/h (3 Bft) 97,87 %
05.09.2016 05:12 15,3 C 15,0 C 13,9 C 95 % 3 lf 1015,0 hPa 0,0 l/m 0 min 0 min 5 W/m 10,5 km/h (2 Bft) 95,65 %
05.09.2016 05:14 15,3 C 15,0 C 13,9 C 95 % 3 lf 1015,0 hPa 0,0 l/m 0 min 0 min 5 W/m 14,6 km/h (3 Bft) 97,87 %
05.09.2016 05:16 15,3 C 15,0 C 13,9 C 95 % 3 lf 1015,0 hPa 0,0 l/m 0 min 0 min 5 W/m 12,6 km/h (3 Bft) 95,74 %
05.09.2016 05:18 15,3 C 15,0 C 13,9 C 95 % 3 lf 1015,0 hPa 0,0 l/m 0 min 0 min 5 W/m 12,6 km/h (3 Bft) 93,62 %
05.09.2016 05:20 15,3 C 15,0 C 13,9 C 95 % 3 lf 1015,0 hPa 0,0 l/m 0 min 0 min 5 W/m 10,5 km/h (2 Bft) 97,87 %
05.09.2016 05:22 15,3 C 15,0 C 13,9 C 95 % 3 lf 1015,0 hPa 0,0 l/m 0 min 0 min 5 W/m 8,4 km/h (2 Bft) 100,00 %
05.09.2016 05:24 15,3 C 15,6 C 13,9 C 95 % 3 lf 1015,0 hPa 0,0 l/m 0 min 0 min 5 W/m 10,5 km/h (2 Bft) 100,00 %
05.09.2016 05:26 15,4 C 15,6 C 13,9 C 95 % 3 lf 1015,1 hPa 0,0 l/m 0 min 0 min 5 W/m 12,6 km/h (3 Bft) 97,87 %
05.09.2016 05:28 15,4 C 15,6 C 13,9 C 95 % 3 lf 1015,2 hPa 0,0 l/m 0 min 0 min 5 W/m 12,6 km/h (3 Bft) 97,87 %
05.09.2016 05:30 15,4 C 15,6 C 13,9 C 95 % 3 lf 1015,2 hPa 0,0 l/m 0 min 0 min 5 W/m 10,5 km/h (2 Bft) 97,87 %
05.09.2016 05:32 15,4 C 15,6 C 13,9 C 95 % 3 lf 1015,2 hPa 0,0 l/m 0 min 0 min 5 W/m 16,7 km/h (3 Bft) 97,92 %
05.09.2016 05:34 15,4 C 15,6 C 14,4 C 95 % 3 lf 1015,2 hPa 0,0 l/m 0 min 0 min 5 W/m 12,6 km/h (3 Bft) 97,87 %
05.09.2016 05:36 15,4 C 15,6 C 14,4 C 95 % 3 lf 1015,2 hPa 0,0 l/m 0 min 0 min 5 W/m 10,5 km/h (2 Bft) 97,92 %
05.09.2016 05:38 15,4 C 15,6 C 13,9 C 95 % 3 lf 1015,3 hPa 0,0 l/m 0 min 0 min 5 W/m 8,4 km/h (2 Bft) 97,87 %
05.09.2016 05:40 15,4 C 15,6 C 13,9 C 95 % 3 lf 1015,2 hPa 0,0 l/m 0 min 0 min 5 W/m 12,6 km/h (3 Bft) 100,00 %
05.09.2016 05:42 15,4 C 15,6 C 13,9 C 95 % 3 lf 1015,2 hPa 0,0 l/m 0 min 0 min 5 W/m 10,5 km/h (2 Bft) 100,00 %
05.09.2016 05:44 15,4 C 15,6 C 13,9 C 95 % 3 lf 1015,2 hPa 0,0 l/m 0 min 0 min 5 W/m 6,3 km/h (2 Bft) 97,14 %
05.09.2016 05:46 15,4 C 15,6 C 13,9 C 95 % 3 lf 1015,2 hPa 0,0 l/m 0 min 0 min 5 W/m 18,8 km/h (3 Bft) 98,28 %
05.09.2016 05:48 15,4 C 15,0 C 13,9 C 95 % 3 lf 1015,2 hPa 0,0 l/m 0 min 0 min 5 W/m 14,6 km/h (3 Bft) 100,00 %
05.09.2016 05:50 15,4 C 15,0 C 13,9 C 95 % 3 lf 1015,2 hPa 0,0 l/m 0 min 0 min 5 W/m 12,6 km/h (3 Bft) 100,00 %
05.09.2016 05:52 15,4 C 15,0 C 13,9 C 96 % 3 lf 1015,2 hPa 0,0 l/m 0 min 0 min 5 W/m 14,6 km/h (3 Bft) 100,00 %
05.09.2016 05:54 15,4 C 15,0 C 13,9 C 96 % 3 lf 1015,1 hPa 0,0 l/m 0 min 0 min 5 W/m 23,0 km/h (4 Bft) 100,00 %
05.09.2016 05:56 15,4 C 15,0 C 13,9 C 96 % 3 lf 1015,1 hPa 0,0 l/m 0 min 0 min 5 W/m 16,7 km/h (3 Bft) 100,00 %
05.09.2016 05:58 15,4 C 15,0 C 13,9 C 96 % 3 lf 1015,2 hPa 0,0 l/m 0 min 0 min 5 W/m 12,6 km/h (3 Bft) 96,55 %
05.09.2016 06:00 15,4 C 15,0 C 13,9 C 96 % 3 lf 1015,3 hPa 0,0 l/m 0 min 0 min 5 W/m 16,7 km/h (3 Bft) 97,14 %
05.09.2016 06:02 15,4 C 15,0 C 13,9 C 96 % 3 lf 1015,3 hPa 0,0 l/m 0 min 0 min 5 W/m 16,7 km/h (3 Bft) 98,31 %
05.09.2016 06:04 15,4 C 15,0 C 13,9 C 96 % 3 lf 1015,3 hPa 0,0 l/m 0 min 0 min 5 W/m 14,6 km/h (3 Bft) 100,00 %
05.09.2016 06:06 15,4 C 15,0 C 13,9 C 96 % 3 lf 1015,3 hPa 0,0 l/m 0 min 0 min 5 W/m 14,6 km/h (3 Bft) 97,87 %
05.09.2016 06:08 15,4 C 15,0 C 13,9 C 96 % 3 lf 1015,4 hPa 0,0 l/m 0 min 0 min 5 W/m 12,6 km/h (3 Bft) 100,00 %
05.09.2016 06:10 15,4 C 15,0 C 13,9 C 96 % 3 lf 1015,4 hPa 0,0 l/m 0 min 0 min 5 W/m 8,4 km/h (2 Bft) 97,14 %
05.09.2016 06:12 15,4 C 15,0 C 13,9 C 96 % 3 lf 1015,4 hPa 0,0 l/m 0 min 0 min 5 W/m 8,4 km/h (2 Bft) 97,87 %
05.09.2016 06:14 15,4 C 15,0 C 13,9 C 96 % 3 lf 1015,4 hPa 0,0 l/m 0 min 0 min 5 W/m 10,5 km/h (2 Bft) 96,23 %
05.09.2016 06:16 15,3 C 15,0 C 13,9 C 96 % 3 lf 1015,4 hPa 0,0 l/m 0 min 0 min 5 W/m 14,6 km/h (3 Bft) 100,00 %
05.09.2016 06:18 15,3 C 15,0 C 13,9 C 96 % 3 lf 1015,4 hPa 0,0 l/m 0 min 0 min 5 W/m 12,6 km/h (3 Bft) 100,00 %
05.09.2016 06:20 15,3 C 15,0 C 13,9 C 96 % 3 lf 1015,5 hPa 0,0 l/m 0 min 0 min 5 W/m 10,5 km/h (2 Bft) 97,30 %
05.09.2016 06:22 15,3 C 15,0 C 13,9 C 96 % 3 lf 1015,6 hPa 0,0 l/m 0 min 0 min 5 W/m 6,3 km/h (2 Bft) 100,00 %
05.09.2016 06:24 15,3 C 15,0 C 13,9 C 96 % 3 lf 1015,6 hPa 0,0 l/m 0 min 0 min 5 W/m 8,4 km/h (2 Bft) 96,23 %
05.09.2016 06:26 15,3 C 15,0 C 13,9 C 96 % 3 lf 1015,6 hPa 0,0 l/m 0 min 0 min 5 W/m 10,5 km/h (2 Bft) 94,00 %
05.09.2016 06:28 15,3 C 15,0 C 13,9 C 96 % 3 lf 1015,5 hPa 0,0 l/m 0 min 0 min 5 W/m 12,6 km/h (3 Bft) 100,00 %
05.09.2016 06:30 15,3 C 15,0 C 13,9 C 96 % 3 lf 1015,6 hPa 0,0 l/m 0 min 0 min 5 W/m 8,4 km/h (2 Bft) 95,74 %
05.09.2016 06:32 15,3 C 15,0 C 13,3 C 96 % 3 lf 1015,7 hPa 0,0 l/m 0 min 0 min 5 W/m 16,7 km/h (3 Bft) 98,15 %
05.09.2016 06:34 15,3 C 15,0 C 13,9 C 96 % 3 lf 1015,7 hPa 0,0 l/m 0 min 0 min 5 W/m 6,3 km/h (2 Bft) 97,96 %
05.09.2016 06:36 15,3 C 15,0 C 13,3 C 96 % 3 lf 1015,8 hPa 0,0 l/m 0 min 0 min 5 W/m 6,3 km/h (2 Bft) 97,30 %
05.09.2016 06:38 15,3 C 15,0 C 13,3 C 96 % 3 lf 1015,8 hPa 0,0 l/m 0 min 0 min 5 W/m 8,4 km/h (2 Bft) 97,87 %
05.09.2016 06:40 15,3 C 15,0 C 13,3 C 96 % 3 lf 1015,8 hPa 0,0 l/m 0 min 0 min 5 W/m 6,3 km/h (2 Bft) 94,44 %
05.09.2016 06:42 15,3 C 14,4 C 13,3 C 96 % 4 lf 1015,7 hPa 0,0 l/m 0 min 0 min 7 W/m 10,5 km/h (2 Bft) 94,00 %
05.09.2016 06:44 15,3 C 14,4 C 13,3 C 96 % 4 lf 1015,8 hPa 0,0 l/m 0 min 0 min 9 W/m 12,6 km/h (3 Bft) 97,30 %
05.09.2016 06:46 15,2 C 14,4 C 13,3 C 95 % 4 lf 1015,8 hPa 0,0 l/m 0 min 0 min 11 W/m 10,5 km/h (2 Bft) 97,87 %
05.09.2016 06:48 15,2 C 14,4 C 13,3 C 95 % 4 lf 1015,8 hPa 0,0 l/m 0 min 0 min 11 W/m 10,5 km/h (2 Bft) 96,23 %
05.09.2016 06:50 15,2 C 14,4 C 13,3 C 95 % 4 lf 1015,8 hPa 0,0 l/m 0 min 0 min 12 W/m 6,3 km/h (2 Bft) 96,00 %
05.09.2016 06:52 15,2 C 14,4 C 13,3 C 95 % 4 lf 1015,8 hPa 0,0 l/m 0 min 0 min 12 W/m 10,5 km/h (2 Bft) 97,30 %
05.09.2016 06:54 15,2 C 14,4 C 13,3 C 95 % 4 lf 1015,8 hPa 0,0 l/m 0 min 0 min 12 W/m 12,6 km/h (3 Bft) 97,87 %
05.09.2016 06:56 15,2 C 14,4 C 13,3 C 96 % 5 lf 1015,9 hPa 0,0 l/m 0 min 0 min 12 W/m 12,6 km/h (3 Bft) 93,62 %
05.09.2016 06:58 15,2 C 14,4 C 13,3 C 96 % 5 lf 1016,1 hPa 0,0 l/m 0 min 0 min 12 W/m 12,6 km/h (3 Bft) 96,30 %
05.09.2016 07:00 15,1 C 14,4 C 13,3 C 96 % 5 lf 1016,0 hPa 0,0 l/m 0 min 0 min 13 W/m 8,4 km/h (2 Bft) 91,49 %
05.09.2016 07:02 15,1 C 14,4 C 13,3 C 96 % 5 lf 1016,0 hPa 0,0 l/m 0 min 0 min 14 W/m 14,6 km/h (3 Bft) 94,74 %
05.09.2016 07:04 15,1 C 14,4 C 12,8 C 96 % 6 lf 1016,1 hPa 0,0 l/m 0 min 0 min 17 W/m 10,5 km/h (2 Bft) 98,00 %
05.09.2016 07:06 15,1 C 14,4 C 13,3 C 96 % 6 lf 1016,1 hPa 0,0 l/m 0 min 0 min 18 W/m 10,5 km/h (2 Bft) 95,74 %
05.09.2016 07:08 15,1 C 14,4 C 13,3 C 96 % 6 lf 1016,1 hPa 0,0 l/m 2 min 0 min 19 W/m 12,6 km/h (3 Bft) 94,44 %
05.09.2016 07:10 15,1 C 14,4 C 13,3 C 96 % 6 lf 1016,2 hPa 0,0 l/m 2 min 0 min 21 W/m 14,6 km/h (3 Bft) 97,44 %
05.09.2016 07:12 15,1 C 14,4 C 13,3 C 96 % 6 lf 1016,2 hPa 0,0 l/m 2 min 0 min 21 W/m 10,5 km/h (2 Bft) 95,65 %
05.09.2016 07:14 15,0 C 14,4 C 13,3 C 96 % 6 lf 1016,2 hPa 0,0 l/m 2 min 0 min 22 W/m 12,6 km/h (3 Bft) 95,83 %
05.09.2016 07:16 15,0 C 14,4 C 13,3 C 96 % 6 lf 1016,2 hPa 0,0 l/m 2 min 0 min 25 W/m 12,6 km/h (3 Bft) 97,87 %
05.09.2016 07:18 15,0 C 14,4 C 13,3 C 96 % 6 lf 1016,2 hPa 0,0 l/m 2 min 0 min 26 W/m 14,6 km/h (3 Bft) 95,74 %
05.09.2016 07:20 15,0 C 15,0 C 13,3 C 96 % 5 lf 1016,3 hPa 0,0 l/m 2 min 0 min 30 W/m 10,5 km/h (2 Bft) 91,49 %
05.09.2016 07:22 15,0 C 15,0 C 13,3 C 96 % 5 lf 1016,3 hPa 0,0 l/m 2 min 0 min 33 W/m 12,6 km/h (3 Bft) 92,59 %
05.09.2016 07:24 15,0 C 15,0 C 13,3 C 96 % 4 lf 1016,3 hPa 0,0 l/m 2 min 0 min 36 W/m 10,5 km/h (2 Bft) 97,37 %
05.09.2016 07:26 15,0 C 15,0 C 13,3 C 96 % 4 lf 1016,3 hPa 0,0 l/m 2 min 0 min 37 W/m 8,4 km/h (2 Bft) 91,67 %
05.09.2016 07:28 15,0 C 15,0 C 13,3 C 96 % 4 lf 1016,4 hPa 0,0 l/m 0 min 0 min 36 W/m 10,5 km/h (2 Bft) 97,87 %
05.09.2016 07:30 15,0 C 15,0 C 13,3 C 96 % 4 lf 1016,4 hPa 0,0 l/m 0 min 0 min 36 W/m 10,5 km/h (2 Bft) 94,55 %
05.09.2016 07:32 15,0 C 15,0 C 13,3 C 96 % 4 lf 1016,4 hPa 0,0 l/m 0 min 0 min 39 W/m 8,4 km/h (2 Bft) 95,65 %
05.09.2016 07:34 15,0 C 15,0 C 13,3 C 96 % 4 lf 1016,4 hPa 0,0 l/m 2 min 0 min 52 W/m 10,5 km/h (2 Bft) 94,87 %
05.09.2016 07:36 15,0 C 15,0 C 13,3 C 96 % 4 lf 1016,5 hPa 0,0 l/m 2 min 0 min 80 W/m 18,8 km/h (3 Bft) 93,62 %
05.09.2016 07:38 15,0 C 15,0 C 13,9 C 96 % 3 lf 1016,5 hPa 0,0 l/m 2 min 0 min 88 W/m 18,8 km/h (3 Bft) 93,62 %
05.09.2016 07:40 15,0 C 15,0 C 13,9 C 96 % 3 lf 1016,6 hPa 0,0 l/m 2 min 0 min 78 W/m 14,6 km/h (3 Bft) 95,74 %
05.09.2016 07:42 15,0 C 15,0 C 13,9 C 96 % 3 lf 1016,6 hPa 0,0 l/m 2 min 0 min 58 W/m 14,6 km/h (3 Bft) 95,74 %
05.09.2016 07:44 15,1 C 15,6 C 13,9 C 96 % 3 lf 1016,7 hPa 0,0 l/m 2 min 0 min 91 W/m 10,5 km/h (2 Bft) 93,62 %
05.09.2016 07:46 15,1 C 15,6 C 13,9 C 96 % 3 lf 1016,7 hPa 0,0 l/m 2 min 0 min 117 W/m 12,6 km/h (3 Bft) 97,83 %
05.09.2016 07:48 15,1 C 15,6 C 14,4 C 96 % 3 lf 1016,7 hPa 0,0 l/m 2 min 0 min 99 W/m 10,5 km/h (2 Bft) 91,49 %
05.09.2016 07:50 15,1 C 15,6 C 14,4 C 96 % 2 lf 1016,7 hPa 0,0 l/m 2 min 0 min 70 W/m 12,6 km/h (3 Bft) 93,62 %
05.09.2016 07:52 15,2 C 16,1 C 14,4 C 96 % 2 lf 1016,7 hPa 0,0 l/m 2 min 0 min 71 W/m 16,7 km/h (3 Bft) 89,36 %
05.09.2016 07:54 15,2 C 16,1 C 14,4 C 96 % 2 lf 1016,7 hPa 0,0 l/m 2 min 0 min 73 W/m 14,6 km/h (3 Bft) 93,62 %
05.09.2016 07:56 15,2 C 16,1 C 14,4 C 96 % 2 lf 1016,7 hPa 0,0 l/m 0 min 0 min 74 W/m 18,8 km/h (3 Bft) 95,74 %
05.09.2016 07:58 15,2 C 16,1 C 15,0 C 96 % 2 lf 1016,7 hPa 0,0 l/m 0 min 0 min 71 W/m 12,6 km/h (3 Bft) 95,65 %
05.09.2016 08:00 15,3 C 16,1 C 15,0 C 96 % 2 lf 1016,7 hPa 0,0 l/m 0 min 0 min 69 W/m 12,6 km/h (3 Bft) 91,49 %
05.09.2016 08:02 15,3 C 16,1 C 15,0 C 96 % 2 lf 1016,8 hPa 0,0 l/m 0 min 0 min 64 W/m 12,6 km/h (3 Bft) 93,62 %
05.09.2016 08:04 15,3 C 16,1 C 15,0 C 96 % 2 lf 1016,8 hPa 0,0 l/m 0 min 0 min 56 W/m 14,6 km/h (3 Bft) 95,74 %
05.09.2016 08:06 15,3 C 16,1 C 15,0 C 96 % 2 lf 1016,8 hPa 0,0 l/m 0 min 0 min 55 W/m 12,6 km/h (3 Bft) 93,62 %
05.09.2016 08:08 15,3 C 16,1 C 15,0 C 96 % 2 lf 1016,8 hPa 0,0 l/m 0 min 0 min 58 W/m 12,6 km/h (3 Bft) 93,62 %
05.09.2016 08:10 15,3 C 16,1 C 15,0 C 96 % 2 lf 1016,8 hPa 0,0 l/m 0 min 0 min 60 W/m 12,6 km/h (3 Bft) 97,83 %
05.09.2016 08:12 15,4 C 16,1 C 15,0 C 96 % 2 lf 1016,8 hPa 0,0 l/m 0 min 0 min 73 W/m 14,6 km/h (3 Bft) 93,62 %
05.09.2016 08:14 15,4 C 16,1 C 15,0 C 96 % 2 lf 1016,8 hPa 0,0 l/m 0 min 0 min 79 W/m 14,6 km/h (3 Bft) 97,87 %
05.09.2016 08:16 15,4 C 16,7 C 15,0 C 96 % 2 lf 1016,8 hPa 0,0 l/m 0 min 0 min 83 W/m 14,6 km/h (3 Bft) 95,74 %
05.09.2016 08:18 15,4 C 16,7 C 15,0 C 96 % 2 lf 1016,8 hPa 0,0 l/m 0 min 0 min 89 W/m 18,8 km/h (3 Bft) 93,62 %
05.09.2016 08:20 15,5 C 16,7 C 15,6 C 96 % 1 lf 1016,8 hPa 0,0 l/m 2 min 0 min 110 W/m 12,6 km/h (3 Bft) 95,74 %
05.09.2016 08:22 15,5 C 16,7 C 15,6 C 96 % 1 lf 1016,8 hPa 0,0 l/m 2 min 0 min 118 W/m 14,6 km/h (3 Bft) 95,65 %
05.09.2016 08:24 15,6 C 16,7 C 15,6 C 96 % 1 lf 1016,8 hPa 0,0 l/m 2 min 0 min 120 W/m 20,9 km/h (4 Bft) 93,62 %
05.09.2016 08:26 15,6 C 16,7 C 15,6 C 96 % 1 lf 1016,9 hPa 0,0 l/m 2 min 0 min 123 W/m 14,6 km/h (3 Bft) 97,87 %
05.09.2016 08:28 15,6 C 17,2 C 15,6 C 96 % 1 lf 1016,9 hPa 0,0 l/m 2 min 0 min 130 W/m 14,6 km/h (3 Bft) 95,74 %
05.09.2016 08:30 15,6 C 17,2 C 16,1 C 96 % 1 lf 1016,9 hPa 0,0 l/m 2 min 0 min 173 W/m 12,6 km/h (3 Bft) 93,62 %
05.09.2016 08:32 15,7 C 17,8 C 16,1 C 96 % 1 lf 1016,8 hPa 0,0 l/m 2 min 0 min 292 W/m 14,6 km/h (3 Bft) 93,62 %
05.09.2016 08:34 15,7 C 17,8 C 16,1 C 96 % 1 lf 1016,8 hPa 0,0 l/m 2 min 0 min 232 W/m 14,6 km/h (3 Bft) 93,48 %
05.09.2016 08:36 15,8 C 18,3 C 16,1 C 96 % 1 lf 1016,8 hPa 0,0 l/m 2 min 0 min 157 W/m 14,6 km/h (3 Bft) 94,44 %
05.09.2016 08:38 15,8 C 18,3 C 16,1 C 96 % 1 lf 1016,9 hPa 0,0 l/m 2 min 0 min 161 W/m 14,6 km/h (3 Bft) 93,62 %
05.09.2016 08:40 15,8 C 18,3 C 16,1 C 96 % 1 lf 1016,9 hPa 0,0 l/m 2 min 0 min 158 W/m 14,6 km/h (3 Bft) 93,62 %
05.09.2016 08:42 15,9 C 18,3 C 16,1 C 96 % 1 lf 1016,9 hPa 0,0 l/m 2 min 0 min 181 W/m 14,6 km/h (3 Bft) 95,65 %
05.09.2016 08:44 15,9 C 18,9 C 16,1 C 96 % 1 lf 1016,8 hPa 0,0 l/m 2 min 0 min 185 W/m 23,0 km/h (4 Bft) 95,74 %
05.09.2016 08:46 15,9 C 18,9 C 16,7 C 96 % 1 lf 1016,9 hPa 0,0 l/m 2 min 0 min 228 W/m 27,2 km/h (4 Bft) 95,74 %
05.09.2016 08:48 15,9 C 18,9 C 16,1 C 96 % 1 lf 1016,9 hPa 0,0 l/m 2 min 0 min 163 W/m 18,8 km/h (3 Bft) 91,49 %
05.09.2016 08:50 16,0 C 18,9 C 16,1 C 96 % 1 lf 1017,0 hPa 0,0 l/m 2 min 0 min 160 W/m 23,0 km/h (4 Bft) 95,74 %
05.09.2016 08:52 16,1 C 20,6 C 16,1 C 96 % 1 lf 1016,9 hPa 0,0 l/m 2 min 0 min 196 W/m 20,9 km/h (4 Bft) 97,92 %
05.09.2016 08:54 16,2 C 21,7 C 16,7 C 96 % 0 lf 1017,0 hPa 0,0 l/m 2 min 0 min 400 W/m 18,8 km/h (3 Bft) 100,00 %
05.09.2016 08:56 16,2 C 23,3 C 16,7 C 96 % 0 lf 1017,1 hPa 0,0 l/m 2 min 0 min 398 W/m 25,1 km/h (4 Bft) 100,00 %
05.09.2016 08:58 16,3 C 23,9 C 17,2 C 95 % 0 lf 1017,1 hPa 0,0 l/m 2 min 0 min 449 W/m 27,2 km/h (4 Bft) 97,87 %
05.09.2016 09:00 16,4 C 23,9 C 17,2 C 95 % 0 lf 1017,2 hPa 0,0 l/m 2 min 0 min 461 W/m 25,1 km/h (4 Bft) 91,49 %
05.09.2016 09:02 16,5 C 24,4 C 17,2 C 95 % 0 lf 1017,2 hPa 0,0 l/m 2 min 0 min 413 W/m 20,9 km/h (4 Bft) 100,00 %
05.09.2016 09:04 16,6 C 22,8 C 17,2 C 95 % 0 lf 1017,2 hPa 0,0 l/m 2 min 0 min 247 W/m 16,7 km/h (3 Bft) 100,00 %
05.09.2016 09:06 16,7 C 21,1 C 17,2 C 94 % 0 lf 1017,3 hPa 0,0 l/m 0 min 0 min 146 W/m 20,9 km/h (4 Bft) 100,00 %
05.09.2016 09:08 16,7 C 20,0 C 16,7 C 94 % 0 lf 1017,5 hPa 0,0 l/m 0 min 0 min 134 W/m 23,0 km/h (4 Bft) 100,00 %
05.09.2016 09:10 16,8 C 19,4 C 16,7 C 94 % 0 lf 1017,4 hPa 0,0 l/m 0 min 0 min 150 W/m 16,7 km/h (3 Bft) 95,74 %
05.09.2016 09:12 16,8 C 19,4 C 16,7 C 93 % 0 lf 1017,4 hPa 0,0 l/m 0 min 0 min 145 W/m 14,6 km/h (3 Bft) 100,00 %
05.09.2016 09:14 16,9 C 18,9 C 16,7 C 93 % 0 lf 1017,4 hPa 0,0 l/m 0 min 0 min 140 W/m 12,6 km/h (3 Bft) 97,87 %
05.09.2016 09:16 16,9 C 18,9 C 16,7 C 93 % 0 lf 1017,4 hPa 0,0 l/m 0 min 0 min 151 W/m 10,5 km/h (2 Bft) 93,62 %
05.09.2016 09:18 16,9 C 18,9 C 16,7 C 92 % 1 lf 1017,5 hPa 0,0 l/m 0 min 0 min 147 W/m 18,8 km/h (3 Bft) 100,00 %
05.09.2016 09:20 16,9 C 18,9 C 16,7 C 92 % 1 lf 1017,5 hPa 0,0 l/m 0 min 0 min 166 W/m 18,8 km/h (3 Bft) 97,83 %
05.09.2016 09:22 16,9 C 18,9 C 16,7 C 91 % 1 lf 1017,5 hPa 0,0 l/m 0 min 0 min 178 W/m 27,2 km/h (4 Bft) 100,00 %
05.09.2016 09:24 17,0 C 18,9 C 16,7 C 91 % 1 lf 1017,5 hPa 0,0 l/m 0 min 0 min 182 W/m 20,9 km/h (4 Bft) 100,00 %
05.09.2016 09:26 17,0 C 18,9 C 16,7 C 91 % 1 lf 1017,6 hPa 0,0 l/m 0 min 0 min 165 W/m 20,9 km/h (4 Bft) 100,00 %
05.09.2016 09:28 17,0 C 18,9 C 16,7 C 91 % 1 lf 1017,6 hPa 0,0 l/m 0 min 0 min 155 W/m 23,0 km/h (4 Bft) 100,00 %
05.09.2016 09:30 17,0 C 18,9 C 16,7 C 90 % 1 lf 1017,5 hPa 0,0 l/m 0 min 0 min 151 W/m 16,7 km/h (3 Bft) 100,00 %
05.09.2016 09:32 17,0 C 20,0 C 16,7 C 90 % 1 lf 1017,7 hPa 0,0 l/m 0 min 0 min 191 W/m 14,6 km/h (3 Bft) 97,83 %
05.09.2016 09:34 17,1 C 20,6 C 16,7 C 90 % 0 lf 1017,7 hPa 0,0 l/m 2 min 0 min 276 W/m 14,6 km/h (3 Bft) 100,00 %
05.09.2016 09:36 17,1 C 21,1 C 17,2 C 90 % 0 lf 1017,6 hPa 0,0 l/m 2 min 0 min 250 W/m 16,7 km/h (3 Bft) 96,30 %
05.09.2016 09:38 17,1 C 21,1 C 17,2 C 90 % 0 lf 1017,7 hPa 0,0 l/m 2 min 0 min 230 W/m 12,6 km/h (3 Bft) 97,87 %
05.09.2016 09:40 17,2 C 21,1 C 17,2 C 90 % 0 lf 1017,7 hPa 0,0 l/m 2 min 0 min 229 W/m 16,7 km/h (3 Bft) 97,87 %
05.09.2016 09:42 17,2 C 20,0 C 17,8 C 90 % 0 lf 1017,7 hPa 0,0 l/m 2 min 0 min 221 W/m 16,7 km/h (3 Bft) 97,83 %
05.09.2016 09:44 17,3 C 20,6 C 17,8 C 89 % 0 lf 1017,8 hPa 0,0 l/m 2 min 0 min 267 W/m 18,8 km/h (3 Bft) 97,87 %
05.09.2016 09:46 17,3 C 21,1 C 18,3 C 89 % 0 lf 1017,8 hPa 0,0 l/m 2 min 0 min 300 W/m 16,7 km/h (3 Bft) 97,87 %
05.09.2016 09:48 17,4 C 21,7 C 18,9 C 89 % 0 lf 1017,7 hPa 0,0 l/m 2 min 0 min 345 W/m 14,6 km/h (3 Bft) 100,00 %
05.09.2016 09:50 17,4 C 22,2 C 18,9 C 89 % 0 lf 1017,8 hPa 0,0 l/m 2 min 0 min 333 W/m 18,8 km/h (3 Bft) 97,87 %
05.09.2016 09:52 17,5 C 21,1 C 18,3 C 89 % 0 lf 1017,9 hPa 0,0 l/m 2 min 0 min 227 W/m 16,7 km/h (3 Bft) 95,74 %
05.09.2016 09:54 17,6 C 20,6 C 18,3 C 89 % 0 lf 1017,8 hPa 0,0 l/m 0 min 0 min 188 W/m 16,7 km/h (3 Bft) 95,65 %
05.09.2016 09:56 17,6 C 20,6 C 18,3 C 88 % 0 lf 1017,9 hPa 0,0 l/m 2 min 0 min 247 W/m 14,6 km/h (3 Bft) 97,87 %
05.09.2016 09:58 17,7 C 20,6 C 18,3 C 88 % 0 lf 1017,8 hPa 0,0 l/m 2 min 0 min 289 W/m 14,6 km/h (3 Bft) 97,87 %
05.09.2016 10:00 17,7 C 21,1 C 18,9 C 88 % 0 lf 1017,9 hPa 0,0 l/m 2 min 0 min 260 W/m 16,7 km/h (3 Bft) 97,87 %
05.09.2016 10:02 17,8 C 20,6 C 18,3 C 88 % 0 lf 1017,9 hPa 0,0 l/m 0 min 0 min 182 W/m 20,9 km/h (4 Bft) 93,75 %
05.09.2016 10:04 17,8 C 20,6 C 18,3 C 88 % 0 lf 1018,0 hPa 0,0 l/m 0 min 0 min 173 W/m 20,9 km/h (4 Bft) 95,65 %
05.09.2016 10:06 17,8 C 20,0 C 17,8 C 87 % 0 lf 1018,0 hPa 0,0 l/m 0 min 0 min 176 W/m 12,6 km/h (3 Bft) 97,44 %
05.09.2016 10:08 17,8 C 20,6 C 17,8 C 87 % 0 lf 1017,9 hPa 0,0 l/m 0 min 0 min 188 W/m 18,8 km/h (3 Bft) 89,13 %
05.09.2016 10:10 17,9 C 22,8 C 19,4 C 87 % 0 lf 1017,9 hPa 0,0 l/m 2 min 0 min 408 W/m 8,4 km/h (2 Bft) 93,62 %
05.09.2016 10:12 17,9 C 24,4 C 20,6 C 87 % 0 lf 1017,9 hPa 0,0 l/m 2 min 0 min 530 W/m 12,6 km/h (3 Bft) 93,62 %
05.09.2016 10:14 18,1 C 26,1 C 21,7 C 87 % 0 lf 1018,0 hPa 0,0 l/m 2 min 0 min 574 W/m 12,6 km/h (3 Bft) 95,74 %
05.09.2016 10:16 18,1 C 26,1 C 21,7 C 88 % 0 lf 1017,9 hPa 0,0 l/m 2 min 0 min 615 W/m 12,6 km/h (3 Bft) 93,62 %
05.09.2016 10:18 18,2 C 25,0 C 20,6 C 87 % 0 lf 1017,9 hPa 0,0 l/m 2 min 0 min 442 W/m 10,5 km/h (2 Bft) 91,49 %
05.09.2016 10:20 18,3 C 26,1 C 21,7 C 87 % 0 lf 1018,0 hPa 0,0 l/m 2 min 0 min 384 W/m 8,4 km/h (2 Bft) 93,48 %
05.09.2016 10:22 18,4 C 26,1 C 21,7 C 87 % 0 lf 1018,0 hPa 0,0 l/m 2 min 0 min 515 W/m 16,7 km/h (3 Bft) 95,74 %
05.09.2016 10:24 18,5 C 28,3 C 22,8 C 86 % 0 lf 1018,0 hPa 0,0 l/m 2 min 0 min 527 W/m 14,6 km/h (3 Bft) 91,49 %
05.09.2016 10:26 18,6 C 27,8 C 22,8 C 86 % 0 lf 1018,1 hPa 0,0 l/m 2 min 0 min 639 W/m 20,9 km/h (4 Bft) 91,49 %
05.09.2016 10:28 18,7 C 27,8 C 23,3 C 85 % 0 lf 1018,0 hPa 0,0 l/m 2 min 0 min 628 W/m 14,6 km/h (3 Bft) 91,49 %
05.09.2016 10:30 18,8 C 27,2 C 22,8 C 85 % 0 lf 1018,0 hPa 0,0 l/m 2 min 0 min 660 W/m 23,0 km/h (4 Bft) 93,62 %
05.09.2016 10:32 18,9 C 27,2 C 22,2 C 84 % 0 lf 1018,0 hPa 0,0 l/m 2 min 0 min 643 W/m 12,6 km/h (3 Bft) 93,48 %
05.09.2016 10:34 19,0 C 26,1 C 21,1 C 84 % 0 lf 1018,0 hPa 0,0 l/m 2 min 0 min 351 W/m 20,9 km/h (4 Bft) 93,62 %
05.09.2016 10:36 19,1 C 27,2 C 21,7 C 83 % 0 lf 1018,0 hPa 0,0 l/m 2 min 0 min 413 W/m 14,6 km/h (3 Bft) 93,75 %
05.09.2016 10:38 19,1 C 27,8 C 22,2 C 83 % 0 lf 1018,0 hPa 0,0 l/m 2 min 0 min 597 W/m 20,9 km/h (4 Bft) 91,49 %
05.09.2016 10:40 19,2 C 28,3 C 22,8 C 83 % 0 lf 1017,9 hPa 0,0 l/m 2 min 0 min 582 W/m 16,7 km/h (3 Bft) 93,62 %
05.09.2016 10:42 19,3 C 28,9 C 22,8 C 83 % 0 lf 1018,0 hPa 0,0 l/m 2 min 0 min 594 W/m 14,6 km/h (3 Bft) 86,96 %
05.09.2016 10:44 19,4 C 28,3 C 22,8 C 83 % 0 lf 1018,0 hPa 0,0 l/m 2 min 0 min 594 W/m 16,7 km/h (3 Bft) 91,49 %
05.09.2016 10:46 19,4 C 29,4 C 23,3 C 82 % 0 lf 1018,0 hPa 0,0 l/m 2 min 0 min 628 W/m 14,6 km/h (3 Bft) 95,74 %
05.09.2016 10:48 19,5 C 29,4 C 23,3 C 82 % 0 lf 1018,0 hPa 0,0 l/m 2 min 0 min 664 W/m 12,6 km/h (3 Bft) 97,87 %
05.09.2016 10:50 19,6 C 29,4 C 22,8 C 82 % 0 lf 1018,0 hPa 0,0 l/m 2 min 0 min 697 W/m 14,6 km/h (3 Bft) 95,74 %
05.09.2016 10:52 19,7 C 28,3 C 21,7 C 81 % 0 lf 1018,0 hPa 0,0 l/m 2 min 0 min 719 W/m 16,7 km/h (3 Bft) 94,44 %
05.09.2016 10:54 19,8 C 27,2 C 20,6 C 80 % 0 lf 1018,0 hPa 0,0 l/m 2 min 0 min 483 W/m 12,6 km/h (3 Bft) 95,74 %
05.09.2016 10:56 19,8 C 25,0 C 20,0 C 80 % 0 lf 1018,0 hPa 0,0 l/m 0 min 0 min 227 W/m 16,7 km/h (3 Bft) 95,74 %
05.09.2016 10:58 19,8 C 23,9 C 20,0 C 80 % 0 lf 1017,9 hPa 0,0 l/m 0 min 0 min 231 W/m 8,4 km/h (2 Bft) 97,87 %
05.09.2016 11:00 19,8 C 23,3 C 20,0 C 80 % 0 lf 1018,1 hPa 0,0 l/m 0 min 0 min 231 W/m 12,6 km/h (3 Bft) 97,87 %
05.09.2016 11:02 19,8 C 22,8 C 20,6 C 80 % 0 lf 1018,1 hPa 0,0 l/m 0 min 0 min 234 W/m 14,6 km/h (3 Bft) 97,92 %
05.09.2016 11:04 19,8 C 22,8 C 20,0 C 80 % 0 lf 1018,1 hPa 0,0 l/m 0 min 0 min 236 W/m 16,7 km/h (3 Bft) 95,65 %
05.09.2016 11:06 19,8 C 22,2 C 20,0 C 79 % 0 lf 1018,1 hPa 0,0 l/m 0 min 0 min 228 W/m 12,6 km/h (3 Bft) 97,37 %
05.09.2016 11:08 19,8 C 22,2 C 20,0 C 79 % 0 lf 1018,2 hPa 0,0 l/m 0 min 0 min 250 W/m 14,6 km/h (3 Bft) 100,00 %
05.09.2016 11:10 19,8 C 22,2 C 20,0 C 79 % 0 lf 1018,1 hPa 0,0 l/m 0 min 0 min 259 W/m 10,5 km/h (2 Bft) 100,00 %
05.09.2016 11:12 19,8 C 25,0 C 22,8 C 80 % 0 lf 1018,1 hPa 0,0 l/m 2 min 0 min 293 W/m 20,9 km/h (4 Bft) 97,87 %
05.09.2016 11:14 19,8 C 26,1 C 22,8 C 80 % 0 lf 1018,2 hPa 0,0 l/m 2 min 0 min 638 W/m 16,7 km/h (3 Bft) 97,87 %
05.09.2016 11:16 19,9 C 26,1 C 22,8 C 80 % 0 lf 1018,3 hPa 0,0 l/m 2 min 0 min 446 W/m 10,5 km/h (2 Bft) 97,87 %
05.09.2016 11:18 19,9 C 25,0 C 22,2 C 80 % 0 lf 1018,3 hPa 0,0 l/m 0 min 0 min 211 W/m 12,6 km/h (3 Bft) 95,65 %
05.09.2016 11:20 19,9 C 24,4 C 21,7 C 80 % 0 lf 1018,3 hPa 0,0 l/m 0 min 0 min 227 W/m 12,6 km/h (3 Bft) 95,74 %
05.09.2016 11:22 19,9 C 26,1 C 22,8 C 80 % 0 lf 1018,3 hPa 0,0 l/m 2 min 0 min 452 W/m 14,6 km/h (3 Bft) 93,62 %
05.09.2016 11:24 20,0 C 27,2 C 23,3 C 80 % 0 lf 1018,3 hPa 0,0 l/m 2 min 0 min 763 W/m 16,7 km/h (3 Bft) 95,74 %
05.09.2016 11:26 20,1 C 27,8 C 23,9 C 80 % 0 lf 1018,3 hPa 0,0 l/m 2 min 0 min 762 W/m 14,6 km/h (3 Bft) 97,87 %
05.09.2016 11:28 20,2 C 30,0 C 25,6 C 79 % 0 lf 1018,3 hPa 0,0 l/m 2 min 0 min 760 W/m 10,5 km/h (2 Bft) 97,87 %
05.09.2016 11:30 20,3 C 30,6 C 26,7 C 79 % 0 lf 1018,3 hPa 0,0 l/m 2 min 0 min 822 W/m 12,6 km/h (3 Bft) 95,65 %
05.09.2016 11:32 20,4 C 30,6 C 26,1 C 80 % 0 lf 1018,4 hPa 0,0 l/m 2 min 0 min 640 W/m 18,8 km/h (3 Bft) 95,74 %
05.09.2016 11:34 20,5 C 27,2 C 23,9 C 77 % 0 lf 1018,4 hPa 0,0 l/m 2 min 0 min 309 W/m 27,2 km/h (4 Bft) 95,74 %
05.09.2016 11:36 20,5 C 25,6 C 22,8 C 77 % 0 lf 1018,5 hPa 0,0 l/m 0 min 0 min 212 W/m 12,6 km/h (3 Bft) 94,44 %
05.09.2016 11:38 20,6 C 24,4 C 21,7 C 77 % 0 lf 1018,6 hPa 0,0 l/m 0 min 0 min 192 W/m 10,5 km/h (2 Bft) 97,87 %
05.09.2016 11:40 20,6 C 23,3 C 21,1 C 77 % 0 lf 1018,6 hPa 0,0 l/m 0 min 0 min 190 W/m 12,6 km/h (3 Bft) 97,83 %
05.09.2016 11:42 20,6 C 22,8 C 20,0 C 77 % 0 lf 1018,6 hPa 0,0 l/m 0 min 0 min 188 W/m 16,7 km/h (3 Bft) 95,74 %
05.09.2016 11:44 20,5 C 23,3 C 20,6 C 76 % 0 lf 1018,6 hPa 0,0 l/m 0 min 0 min 203 W/m 16,7 km/h (3 Bft) 97,87 %
05.09.2016 11:46 20,5 C 27,2 C 23,3 C 77 % 0 lf 1018,6 hPa 0,0 l/m 2 min 0 min 690 W/m 6,3 km/h (2 Bft) 97,87 %
05.09.2016 11:48 20,6 C 27,2 C 23,3 C 77 % 0 lf 1018,6 hPa 0,0 l/m 2 min 0 min 774 W/m 12,6 km/h (3 Bft) 97,87 %
05.09.2016 11:50 20,6 C 27,8 C 23,9 C 77 % 0 lf 1018,7 hPa 0,0 l/m 2 min 0 min 745 W/m 16,7 km/h (3 Bft) 95,65 %
05.09.2016 11:52 20,7 C 28,9 C 25,0 C 77 % 0 lf 1018,7 hPa 0,0 l/m 2 min 0 min 666 W/m 18,8 km/h (3 Bft) 97,87 %
05.09.2016 11:54 20,7 C 30,0 C 25,6 C 77 % 0 lf 1018,7 hPa 0,0 l/m 2 min 0 min 716 W/m 14,6 km/h (3 Bft) 97,87 %
05.09.2016 11:56 20,8 C 31,1 C 26,1 C 77 % 0 lf 1018,7 hPa 0,0 l/m 2 min 0 min 715 W/m 10,5 km/h (2 Bft) 97,87 %
05.09.2016 11:58 20,9 C 31,1 C 26,7 C 77 % 0 lf 1018,6 hPa 0,0 l/m 2 min 0 min 800 W/m 12,6 km/h (3 Bft) 97,87 %
05.09.2016 12:00 21,0 C 32,8 C 27,2 C 77 % 0 lf 1018,7 hPa 0,0 l/m 2 min 0 min 758 W/m 14,6 km/h (3 Bft) 95,74 %
05.09.2016 12:02 21,2 C 31,7 C 27,2 C 76 % 0 lf 1018,8 hPa 0,0 l/m 2 min 0 min 752 W/m 18,8 km/h (3 Bft) 100,00 %
05.09.2016 12:04 21,2 C 32,2 C 26,1 C 74 % 0 lf 1018,8 hPa 0,0 l/m 2 min 0 min 752 W/m 20,9 km/h (4 Bft) 100,00 %
05.09.2016 12:06 21,3 C 31,1 C 26,1 C 75 % 0 lf 1018,9 hPa 0,0 l/m 2 min 0 min 579 W/m 18,8 km/h (3 Bft) 97,37 %
05.09.2016 12:08 21,4 C 32,8 C 27,2 C 75 % 0 lf 1018,9 hPa 0,0 l/m 2 min 0 min 507 W/m 20,9 km/h (4 Bft) 97,87 %
05.09.2016 12:10 21,5 C 31,7 C 27,8 C 74 % 0 lf 1018,8 hPa 0,0 l/m 2 min 0 min 448 W/m 18,8 km/h (3 Bft) 100,00 %
05.09.2016 12:12 21,6 C 30,0 C 27,2 C 74 % 0 lf 1018,8 hPa 0,0 l/m 2 min 0 min 521 W/m 16,7 km/h (3 Bft) 100,00 %
05.09.2016 12:14 21,7 C 29,4 C 26,1 C 74 % 0 lf 1018,9 hPa 0,0 l/m 2 min 0 min 469 W/m 18,8 km/h (3 Bft) 97,87 %
05.09.2016 12:16 21,7 C 28,3 C 25,6 C 73 % 0 lf 1018,9 hPa 0,0 l/m 2 min 0 min 485 W/m 20,9 km/h (4 Bft) 97,83 %
05.09.2016 12:18 21,8 C 27,2 C 24,4 C 73 % 0 lf 1018,9 hPa 0,0 l/m 2 min 0 min 374 W/m 18,8 km/h (3 Bft) 95,74 %
05.09.2016 12:20 21,8 C 26,1 C 23,9 C 72 % 0 lf 1018,9 hPa 0,0 l/m 2 min 0 min 337 W/m 20,9 km/h (4 Bft) 100,00 %
05.09.2016 12:22 21,8 C 25,0 C 22,8 C 73 % 0 lf 1018,8 hPa 0,0 l/m 0 min 0 min 303 W/m 23,0 km/h (4 Bft) 97,87 %
05.09.2016 12:24 21,8 C 24,4 C 22,8 C 72 % 0 lf 1018,8 hPa 0,0 l/m 0 min 0 min 283 W/m 10,5 km/h (2 Bft) 97,87 %
05.09.2016 12:26 21,8 C 24,4 C 22,2 C 72 % 0 lf 1018,8 hPa 0,0 l/m 0 min 0 min 295 W/m 16,7 km/h (3 Bft) 95,74 %
05.09.2016 12:28 21,7 C 24,4 C 22,2 C 72 % 0 lf 1018,9 hPa 0,0 l/m 0 min 0 min 319 W/m 20,9 km/h (4 Bft) 100,00 %
05.09.2016 12:30 21,7 C 24,4 C 22,2 C 72 % 0 lf 1018,9 hPa 0,0 l/m 2 min 0 min 352 W/m 16,7 km/h (3 Bft) 97,87 %
05.09.2016 12:32 21,7 C 25,0 C 22,2 C 72 % 0 lf 1018,9 hPa 0,0 l/m 2 min 0 min 394 W/m 14,6 km/h (3 Bft) 97,87 %
05.09.2016 12:34 21,7 C 25,6 C 22,8 C 72 % 0 lf 1018,8 hPa 0,0 l/m 2 min 0 min 500 W/m 12,6 km/h (3 Bft) 100,00 %
05.09.2016 12:36 21,7 C 26,7 C 23,9 C 73 % 0 lf 1018,9 hPa 0,0 l/m 2 min 0 min 512 W/m 6,3 km/h (2 Bft) 100,00 %
05.09.2016 12:38 21,7 C 26,7 C 23,3 C 72 % 0 lf 1018,8 hPa 0,0 l/m 2 min 0 min 411 W/m 16,7 km/h (3 Bft) 98,18 %
05.09.2016 12:40 21,7 C 25,6 C 22,8 C 71 % 0 lf 1018,8 hPa 0,0 l/m 0 min 0 min 313 W/m 18,8 km/h (3 Bft) 95,74 %
05.09.2016 12:42 21,7 C 24,4 C 21,7 C 72 % 0 lf 1018,9 hPa 0,0 l/m 0 min 0 min 230 W/m 18,8 km/h (3 Bft) 93,62 %
05.09.2016 12:44 21,6 C 23,9 C 21,7 C 73 % 0 lf 1018,9 hPa 0,0 l/m 0 min 0 min 197 W/m 12,6 km/h (3 Bft) 97,87 %
05.09.2016 12:46 21,6 C 23,3 C 21,1 C 72 % 0 lf 1019,0 hPa 0,0 l/m 0 min 0 min 202 W/m 14,6 km/h (3 Bft) 97,87 %
05.09.2016 12:48 21,5 C 23,3 C 21,7 C 72 % 0 lf 1019,0 hPa 0,0 l/m 0 min 0 min 222 W/m 10,5 km/h (2 Bft) 93,62 %
05.09.2016 12:50 21,5 C 23,3 C 21,7 C 73 % 0 lf 1019,0 hPa 0,0 l/m 0 min 0 min 243 W/m 10,5 km/h (2 Bft) 92,11 %
05.09.2016 12:52 21,4 C 22,8 C 21,7 C 72 % 0 lf 1018,9 hPa 0,0 l/m 0 min 0 min 268 W/m 16,7 km/h (3 Bft) 96,36 %
05.09.2016 12:54 21,3 C 22,8 C 21,7 C 71 % 0 lf 1018,9 hPa 0,0 l/m 0 min 0 min 287 W/m 12,6 km/h (3 Bft) 93,62 %
05.09.2016 12:56 21,3 C 23,3 C 22,2 C 72 % 0 lf 1019,0 hPa 0,0 l/m 0 min 0 min 305 W/m 12,6 km/h (3 Bft) 95,74 %
05.09.2016 12:58 21,3 C 23,3 C 22,2 C 73 % 0 lf 1018,9 hPa 0,0 l/m 0 min 0 min 311 W/m 8,4 km/h (2 Bft) 93,62 %
05.09.2016 13:00 21,3 C 23,9 C 22,2 C 72 % 0 lf 1018,9 hPa 0,0 l/m 0 min 0 min 308 W/m 10,5 km/h (2 Bft) 89,36 %
05.09.2016 13:02 21,3 C 23,9 C 22,2 C 73 % 0 lf 1018,9 hPa 0,0 l/m 0 min 0 min 308 W/m 6,3 km/h (2 Bft) 93,62 %
05.09.2016 13:04 21,3 C 23,3 C 22,2 C 73 % 0 lf 1019,0 hPa 0,0 l/m 0 min 0 min 305 W/m 10,5 km/h (2 Bft) 95,74 %
05.09.2016 13:06 21,2 C 23,3 C 22,2 C 73 % 0 lf 1018,9 hPa 0,0 l/m 0 min 0 min 330 W/m 10,5 km/h (2 Bft) 95,74 %
05.09.2016 13:08 21,3 C 23,9 C 22,8 C 74 % 0 lf 1018,9 hPa 0,0 l/m 0 min 0 min 336 W/m 8,4 km/h (2 Bft) 93,62 %
05.09.2016 13:10 21,3 C 23,9 C 22,8 C 74 % 0 lf 1019,0 hPa 0,0 l/m 0 min 0 min 332 W/m 8,4 km/h (2 Bft) 93,62 %
05.09.2016 13:12 21,3 C 23,9 C 22,8 C 74 % 0 lf 1019,0 hPa 0,0 l/m 0 min 0 min 335 W/m 10,5 km/h (2 Bft) 95,65 %
05.09.2016 13:14 21,3 C 23,9 C 22,8 C 73 % 0 lf 1019,0 hPa 0,0 l/m 0 min 0 min 339 W/m 14,6 km/h (3 Bft) 93,62 %
05.09.2016 13:16 21,3 C 23,9 C 22,8 C 73 % 0 lf 1019,0 hPa 0,0 l/m 2 min 0 min 357 W/m 12,6 km/h (3 Bft) 91,49 %
05.09.2016 13:18 21,3 C 23,9 C 22,8 C 73 % 0 lf 1019,0 hPa 0,0 l/m 2 min 0 min 380 W/m 14,6 km/h (3 Bft) 93,62 %
05.09.2016 13:20 21,3 C 24,4 C 22,8 C 73 % 0 lf 1019,0 hPa 0,0 l/m 2 min 0 min 363 W/m 14,6 km/h (3 Bft) 95,74 %
05.09.2016 13:22 21,3 C 25,0 C 23,3 C 74 % 0 lf 1019,0 hPa 0,0 l/m 2 min 0 min 352 W/m 12,6 km/h (3 Bft) 93,62 %
05.09.2016 13:24 21,3 C 25,0 C 22,8 C 72 % 0 lf 1018,9 hPa 0,0 l/m 0 min 0 min 328 W/m 14,6 km/h (3 Bft) 93,48 %
05.09.2016 13:26 21,3 C 24,4 C 22,8 C 72 % 0 lf 1019,0 hPa 0,0 l/m 0 min 0 min 306 W/m 12,6 km/h (3 Bft) 95,74 %
05.09.2016 13:28 21,3 C 24,4 C 22,8 C 73 % 0 lf 1019,0 hPa 0,0 l/m 0 min 0 min 287 W/m 16,7 km/h (3 Bft) 95,74 %
05.09.2016 13:30 21,4 C 23,9 C 22,8 C 73 % 0 lf 1019,0 hPa 0,0 l/m 0 min 0 min 287 W/m 14,6 km/h (3 Bft) 97,87 %
05.09.2016 13:32 21,4 C 23,3 C 22,2 C 72 % 0 lf 1019,0 hPa 0,0 l/m 0 min 0 min 286 W/m 20,9 km/h (4 Bft) 93,75 %
05.09.2016 13:34 21,3 C 23,3 C 21,7 C 72 % 0 lf 1019,1 hPa 0,0 l/m 0 min 0 min 262 W/m 16,7 km/h (3 Bft) 95,74 %
05.09.2016 13:36 21,3 C 23,3 C 21,7 C 72 % 0 lf 1019,1 hPa 0,0 l/m 0 min 0 min 232 W/m 16,7 km/h (3 Bft) 97,37 %
05.09.2016 13:38 21,3 C 22,8 C 21,1 C 72 % 0 lf 1019,2 hPa 0,0 l/m 0 min 0 min 212 W/m 16,7 km/h (3 Bft) 95,65 %
05.09.2016 13:40 21,2 C 22,8 C 21,1 C 72 % 0 lf 1019,2 hPa 0,0 l/m 0 min 0 min 205 W/m 16,7 km/h (3 Bft) 95,74 %
05.09.2016 13:42 21,2 C 22,8 C 21,1 C 73 % 0 lf 1019,2 hPa 0,0 l/m 0 min 0 min 203 W/m 12,6 km/h (3 Bft) 95,74 %
05.09.2016 13:44 21,2 C 22,8 C 21,7 C 74 % 0 lf 1019,3 hPa 0,0 l/m 0 min 0 min 215 W/m 8,4 km/h (2 Bft) 95,74 %
05.09.2016 13:46 21,2 C 22,8 C 21,7 C 74 % 0 lf 1019,3 hPa 0,0 l/m 0 min 0 min 240 W/m 8,4 km/h (2 Bft) 97,87 %
05.09.2016 13:48 21,2 C 22,8 C 21,7 C 75 % 0 lf 1019,3 hPa 0,0 l/m 0 min 0 min 263 W/m 10,5 km/h (2 Bft) 97,87 %
05.09.2016 13:50 21,2 C 22,8 C 22,2 C 74 % 0 lf 1019,4 hPa 0,0 l/m 0 min 0 min 278 W/m 10,5 km/h (2 Bft) 97,83 %
05.09.2016 13:52 21,2 C 23,3 C 22,2 C 74 % 0 lf 1019,4 hPa 0,0 l/m 0 min 0 min 300 W/m 6,3 km/h (2 Bft) 95,74 %
05.09.2016 13:54 21,2 C 23,9 C 22,8 C 74 % 0 lf 1019,5 hPa 0,0 l/m 0 min 0 min 336 W/m 8,4 km/h (2 Bft) 95,74 %
05.09.2016 13:56 21,2 C 24,4 C 22,8 C 75 % 0 lf 1019,5 hPa 0,0 l/m 2 min 0 min 357 W/m 14,6 km/h (3 Bft) 95,74 %
05.09.2016 13:58 21,3 C 24,4 C 22,8 C 75 % 0 lf 1019,5 hPa 0,0 l/m 0 min 0 min 345 W/m 14,6 km/h (3 Bft) 93,62 %
05.09.2016 14:00 21,3 C 24,4 C 23,3 C 75 % 0 lf 1019,5 hPa 0,0 l/m 0 min 0 min 329 W/m 12,6 km/h (3 Bft) 97,87 %
05.09.2016 14:02 21,3 C 24,4 C 22,8 C 74 % 0 lf 1019,5 hPa 0,0 l/m 0 min 0 min 318 W/m 16,7 km/h (3 Bft) 97,83 %
05.09.2016 14:04 21,3 C 24,4 C 22,8 C 74 % 0 lf 1019,5 hPa 0,0 l/m 0 min 0 min 314 W/m 14,6 km/h (3 Bft) 97,87 %
05.09.2016 14:06 21,4 C 23,9 C 22,8 C 74 % 0 lf 1019,5 hPa 0,0 l/m 0 min 0 min 308 W/m 10,5 km/h (2 Bft) 96,30 %
05.09.2016 14:08 21,4 C 24,4 C 22,8 C 73 % 0 lf 1019,5 hPa 0,0 l/m 0 min 0 min 319 W/m 12,6 km/h (3 Bft) 100,00 %
05.09.2016 14:10 21,4 C 24,4 C 22,8 C 74 % 0 lf 1019,6 hPa 0,0 l/m 2 min 0 min 345 W/m 14,6 km/h (3 Bft) 100,00 %
05.09.2016 14:12 21,4 C 24,4 C 22,8 C 74 % 0 lf 1019,6 hPa 0,0 l/m 2 min 0 min 368 W/m 12,6 km/h (3 Bft) 100,00 %
05.09.2016 14:14 21,4 C 25,0 C 22,8 C 73 % 0 lf 1019,6 hPa 0,0 l/m 2 min 0 min 391 W/m 10,5 km/h (2 Bft) 97,87 %
05.09.2016 14:16 21,4 C 25,6 C 23,3 C 73 % 0 lf 1019,6 hPa 0,0 l/m 2 min 0 min 413 W/m 8,4 km/h (2 Bft) 97,87 %
05.09.2016 14:18 21,4 C 25,6 C 23,3 C 73 % 0 lf 1019,6 hPa 0,0 l/m 2 min 0 min 428 W/m 12,6 km/h (3 Bft) 97,87 %
05.09.2016 14:20 21,5 C 26,1 C 23,3 C 73 % 0 lf 1019,7 hPa 0,0 l/m 2 min 0 min 425 W/m 14,6 km/h (3 Bft) 97,87 %
05.09.2016 14:22 21,5 C 26,1 C 23,3 C 72 % 0 lf 1019,7 hPa 0,0 l/m 2 min 0 min 411 W/m 10,5 km/h (2 Bft) 97,87 %
05.09.2016 14:24 21,5 C 26,1 C 23,3 C 72 % 0 lf 1019,6 hPa 0,0 l/m 2 min 0 min 407 W/m 14,6 km/h (3 Bft) 95,65 %
05.09.2016 14:26 21,5 C 26,1 C 22,8 C 72 % 0 lf 1019,6 hPa 0,0 l/m 2 min 0 min 423 W/m 12,6 km/h (3 Bft) 95,74 %
05.09.2016 14:28 21,6 C 26,7 C 23,3 C 72 % 0 lf 1019,6 hPa 0,0 l/m 2 min 0 min 463 W/m 8,4 km/h (2 Bft) 97,87 %
05.09.2016 14:30 21,6 C 26,1 C 23,9 C 73 % 0 lf 1019,7 hPa 0,0 l/m 2 min 0 min 403 W/m 10,5 km/h (2 Bft) 95,74 %
05.09.2016 14:32 21,7 C 26,7 C 23,3 C 72 % 0 lf 1019,7 hPa 0,0 l/m 2 min 0 min 392 W/m 12,6 km/h (3 Bft) 92,11 %
05.09.2016 14:34 21,7 C 26,7 C 23,3 C 72 % 0 lf 1019,8 hPa 0,0 l/m 2 min 0 min 398 W/m 12,6 km/h (3 Bft) 96,36 %
05.09.2016 14:36 21,8 C 26,7 C 23,9 C 72 % 0 lf 1019,8 hPa 0,0 l/m 2 min 0 min 389 W/m 10,5 km/h (2 Bft) 97,44 %
05.09.2016 14:38 21,8 C 26,7 C 23,3 C 72 % 0 lf 1019,8 hPa 0,0 l/m 2 min 0 min 374 W/m 12,6 km/h (3 Bft) 96,36 %
05.09.2016 14:40 21,8 C 26,7 C 23,3 C 71 % 0 lf 1019,7 hPa 0,0 l/m 2 min 0 min 398 W/m 16,7 km/h (3 Bft) 97,87 %
05.09.2016 14:42 21,8 C 27,8 C 23,3 C 71 % 0 lf 1019,8 hPa 0,0 l/m 2 min 0 min 511 W/m 14,6 km/h (3 Bft) 97,87 %
05.09.2016 14:44 21,8 C 27,8 C 22,8 C 71 % 0 lf 1019,8 hPa 0,0 l/m 2 min 0 min 437 W/m 14,6 km/h (3 Bft) 91,49 %
05.09.2016 14:46 21,8 C 27,2 C 22,8 C 71 % 0 lf 1019,7 hPa 0,0 l/m 2 min 0 min 372 W/m 14,6 km/h (3 Bft) 95,65 %
05.09.2016 14:48 21,9 C 26,1 C 22,8 C 71 % 0 lf 1019,8 hPa 0,0 l/m 2 min 0 min 364 W/m 10,5 km/h (2 Bft) 95,74 %
05.09.2016 14:50 21,9 C 27,8 C 23,3 C 70 % 0 lf 1019,7 hPa 0,0 l/m 2 min 0 min 420 W/m 12,6 km/h (3 Bft) 93,62 %
05.09.2016 14:52 21,9 C 28,9 C 24,4 C 71 % 0 lf 1019,7 hPa 0,0 l/m 2 min 0 min 626 W/m 6,3 km/h (2 Bft) 93,62 %
05.09.2016 14:54 21,9 C 31,1 C 25,6 C 72 % 0 lf 1019,7 hPa 0,0 l/m 2 min 0 min 758 W/m 8,4 km/h (2 Bft) 93,62 %
05.09.2016 14:56 22,0 C 32,2 C 27,2 C 71 % 0 lf 1019,8 hPa 0,0 l/m 2 min 0 min 795 W/m 14,6 km/h (3 Bft) 95,74 %
05.09.2016 14:58 22,1 C 32,2 C 27,2 C 72 % 0 lf 1019,8 hPa 0,0 l/m 2 min 0 min 765 W/m 16,7 km/h (3 Bft) 93,48 %
05.09.2016 15:00 22,2 C 32,2 C 27,2 C 72 % 0 lf 1019,8 hPa 0,0 l/m 2 min 0 min 697 W/m 12,6 km/h (3 Bft) 95,74 %
05.09.2016 15:02 22,3 C 32,2 C 25,6 C 71 % 0 lf 1019,8 hPa 0,0 l/m 2 min 0 min 693 W/m 14,6 km/h (3 Bft) 97,37 %
05.09.2016 15:04 22,3 C 32,8 C 24,4 C 70 % 0 lf 1019,8 hPa 0,0 l/m 2 min 0 min 783 W/m 12,6 km/h (3 Bft) 94,64 %
05.09.2016 15:06 22,4 C 32,8 C 23,9 C 71 % 0 lf 1019,8 hPa 0,0 l/m 2 min 0 min 680 W/m 12,6 km/h (3 Bft) 93,62 %
05.09.2016 15:08 22,5 C 33,3 C 23,9 C 70 % 0 lf 1019,8 hPa 0,0 l/m 2 min 0 min 670 W/m 10,5 km/h (2 Bft) 95,74 %
05.09.2016 15:10 22,6 C 33,9 C 23,9 C 70 % 0 lf 1019,8 hPa 0,0 l/m 2 min 0 min 776 W/m 10,5 km/h (2 Bft) 95,65 %
05.09.2016 15:12 22,6 C 32,8 C 23,3 C 70 % 0 lf 1019,8 hPa 0,0 l/m 2 min 0 min 546 W/m 16,7 km/h (3 Bft) 95,74 %
05.09.2016 15:14 22,6 C 32,8 C 23,3 C 69 % 0 lf 1019,8 hPa 0,0 l/m 2 min 0 min 501 W/m 12,6 km/h (3 Bft) 97,87 %
05.09.2016 15:16 22,6 C 32,2 C 23,9 C 69 % 0 lf 1019,8 hPa 0,0 l/m 2 min 0 min 501 W/m 14,6 km/h (3 Bft) 97,87 %
05.09.2016 15:18 22,6 C 30,6 C 22,8 C 67 % 0 lf 1019,7 hPa 0,0 l/m 2 min 0 min 516 W/m 16,7 km/h (3 Bft) 100,00 %
05.09.2016 15:20 22,6 C 29,4 C 22,8 C 67 % 0 lf 1019,8 hPa 0,0 l/m 2 min 0 min 677 W/m 14,6 km/h (3 Bft) 95,74 %
05.09.2016 15:22 22,6 C 30,0 C 22,2 C 67 % 0 lf 1019,8 hPa 0,0 l/m 2 min 0 min 450 W/m 16,7 km/h (3 Bft) 95,65 %
05.09.2016 15:24 22,6 C 30,0 C 22,2 C 66 % 0 lf 1019,9 hPa 0,0 l/m 2 min 0 min 465 W/m 14,6 km/h (3 Bft) 93,62 %
05.09.2016 15:26 22,6 C 30,6 C 23,9 C 67 % 0 lf 1019,9 hPa 0,0 l/m 2 min 0 min 660 W/m 12,6 km/h (3 Bft) 95,74 %
05.09.2016 15:28 22,6 C 31,1 C 24,4 C 68 % 0 lf 1019,9 hPa 0,0 l/m 2 min 0 min 742 W/m 14,6 km/h (3 Bft) 100,00 %
05.09.2016 15:30 22,6 C 31,1 C 23,3 C 67 % 0 lf 1020,0 hPa 0,0 l/m 2 min 0 min 654 W/m 14,6 km/h (3 Bft) 95,74 %
05.09.2016 15:32 22,6 C 32,2 C 23,3 C 68 % 0 lf 1019,9 hPa 0,0 l/m 2 min 0 min 614 W/m 14,6 km/h (3 Bft) 97,92 %
05.09.2016 15:34 22,6 C 31,1 C 22,8 C 67 % 0 lf 1019,9 hPa 0,0 l/m 2 min 0 min 756 W/m 14,6 km/h (3 Bft) 97,83 %
05.09.2016 15:36 22,6 C 30,0 C 22,8 C 67 % 0 lf 1019,9 hPa 0,0 l/m 2 min 0 min 402 W/m 8,4 km/h (2 Bft) 94,74 %
05.09.2016 15:38 22,6 C 29,4 C 22,8 C 68 % 0 lf 1019,9 hPa 0,0 l/m 2 min 0 min 381 W/m 10,5 km/h (2 Bft) 97,87 %
05.09.2016 15:40 22,6 C 28,3 C 22,8 C 68 % 0 lf 1020,0 hPa 0,0 l/m 2 min 0 min 362 W/m 12,6 km/h (3 Bft) 93,62 %
05.09.2016 15:42 22,6 C 27,2 C 22,2 C 68 % 0 lf 1020,0 hPa 0,0 l/m 2 min 0 min 315 W/m 10,5 km/h (2 Bft) 97,87 %
05.09.2016 15:44 22,5 C 27,2 C 22,2 C 68 % 0 lf 1020,0 hPa 0,0 l/m 2 min 0 min 341 W/m 10,5 km/h (2 Bft) 97,87 %
05.09.2016 15:46 22,5 C 26,1 C 22,2 C 69 % 0 lf 1020,0 hPa 0,0 l/m 2 min 0 min 331 W/m 4,2 km/h (1 Bft) 97,87 %
05.09.2016 15:48 22,4 C 26,1 C 22,2 C 69 % 0 lf 1020,0 hPa 0,0 l/m 0 min 0 min 268 W/m 10,5 km/h (2 Bft) 95,65 %
05.09.2016 15:50 22,4 C 26,1 C 21,7 C 69 % 0 lf 1020,1 hPa 0,0 l/m 0 min 0 min 260 W/m 10,5 km/h (2 Bft) 95,74 %
05.09.2016 15:52 22,4 C 25,6 C 21,1 C 68 % 0 lf 1020,0 hPa 0,0 l/m 0 min 0 min 236 W/m 6,3 km/h (2 Bft) 95,74 %
05.09.2016 15:54 22,4 C 26,1 C 21,1 C 68 % 0 lf 1020,0 hPa 0,0 l/m 0 min 0 min 259 W/m 10,5 km/h (2 Bft) 97,87 %
05.09.2016 15:56 22,3 C 26,1 C 21,1 C 69 % 0 lf 1020,0 hPa 0,0 l/m 2 min 0 min 313 W/m 8,4 km/h (2 Bft) 93,62 %
05.09.2016 15:58 22,3 C 28,3 C 21,1 C 69 % 0 lf 1020,0 hPa 0,0 l/m 2 min 0 min 374 W/m 8,4 km/h (2 Bft) 95,74 %
05.09.2016 16:00 22,3 C 30,0 C 21,1 C 69 % 0 lf 1020,0 hPa 0,0 l/m 2 min 0 min 646 W/m 10,5 km/h (2 Bft) 95,65 %
05.09.2016 16:02 22,3 C 30,6 C 21,7 C 70 % 0 lf 1020,0 hPa 0,0 l/m 2 min 0 min 646 W/m 6,3 km/h (2 Bft) 97,92 %
05.09.2016 16:04 22,3 C 31,7 C 21,7 C 70 % 0 lf 1020,0 hPa 0,0 l/m 2 min 0 min 651 W/m 10,5 km/h (2 Bft) 97,87 %
05.09.2016 16:06 22,4 C 32,8 C 22,2 C 70 % 0 lf 1020,0 hPa 0,0 l/m 2 min 0 min 669 W/m 10,5 km/h (2 Bft) 100,00 %
05.09.2016 16:08 22,5 C 32,8 C 22,8 C 71 % 0 lf 1020,0 hPa 0,0 l/m 2 min 0 min 652 W/m 10,5 km/h (2 Bft) 97,87 %
05.09.2016 16:10 22,6 C 30,6 C 22,8 C 70 % 0 lf 1020,1 hPa 0,0 l/m 2 min 0 min 591 W/m 6,3 km/h (2 Bft) 100,00 %
05.09.2016 16:12 22,6 C 30,0 C 22,8 C 70 % 0 lf 1020,1 hPa 0,0 l/m 2 min 0 min 406 W/m 6,3 km/h (2 Bft) 97,87 %
05.09.2016 16:14 22,7 C 29,4 C 22,2 C 69 % 0 lf 1020,0 hPa 0,0 l/m 2 min 0 min 278 W/m 6,3 km/h (2 Bft) 100,00 %
05.09.2016 16:16 22,7 C 28,9 C 21,7 C 69 % 0 lf 1020,1 hPa 0,0 l/m 0 min 0 min 263 W/m 6,3 km/h (2 Bft) 100,00 %
05.09.2016 16:18 22,7 C 29,4 C 22,2 C 69 % 0 lf 1020,1 hPa 0,0 l/m 2 min 0 min 297 W/m 4,2 km/h (1 Bft) 100,00 %
05.09.2016 16:20 22,7 C 30,6 C 22,2 C 69 % 0 lf 1020,1 hPa 0,0 l/m 2 min 0 min 302 W/m 4,2 km/h (1 Bft) 95,74 %
05.09.2016 16:22 22,7 C 31,1 C 22,2 C 69 % 0 lf 1020,1 hPa 0,0 l/m 2 min 0 min 442 W/m 8,4 km/h (2 Bft) 95,65 %
05.09.2016 16:24 22,8 C 31,1 C 22,2 C 68 % 0 lf 1020,0 hPa 0,0 l/m 2 min 0 min 624 W/m 6,3 km/h (2 Bft) 100,00 %
05.09.2016 16:26 22,8 C 31,1 C 22,2 C 68 % 0 lf 1020,0 hPa 0,0 l/m 2 min 0 min 649 W/m 8,4 km/h (2 Bft) 100,00 %
05.09.2016 16:28 22,9 C 30,6 C 22,2 C 67 % 0 lf 1020,1 hPa 0,0 l/m 2 min 0 min 386 W/m 10,5 km/h (2 Bft) 95,74 %
05.09.2016 16:30 22,9 C 28,3 C 21,7 C 67 % 0 lf 1020,0 hPa 0,0 l/m 0 min 0 min 253 W/m 14,6 km/h (3 Bft) 97,87 %
05.09.2016 16:32 22,9 C 27,2 C 21,7 C 66 % 0 lf 1020,1 hPa 0,0 l/m 0 min 0 min 187 W/m 12,6 km/h (3 Bft) 97,83 %
05.09.2016 16:34 22,9 C 26,1 C 21,7 C 66 % 0 lf 1020,1 hPa 0,0 l/m 0 min 0 min 181 W/m 8,4 km/h (2 Bft) 95,74 %
05.09.2016 16:36 22,8 C 26,7 C 21,7 C 67 % 0 lf 1020,1 hPa 0,0 l/m 0 min 0 min 216 W/m 6,3 km/h (2 Bft) 95,35 %
05.09.2016 16:38 22,8 C 27,2 C 21,7 C 67 % 0 lf 1020,1 hPa 0,0 l/m 2 min 0 min 346 W/m 10,5 km/h (2 Bft) 97,87 %
05.09.2016 16:40 22,9 C 26,1 C 21,7 C 67 % 0 lf 1020,1 hPa 0,0 l/m 0 min 0 min 192 W/m 6,3 km/h (2 Bft) 97,87 %
05.09.2016 16:42 22,8 C 26,1 C 21,7 C 67 % 0 lf 1020,1 hPa 0,0 l/m 0 min 0 min 139 W/m 10,5 km/h (2 Bft) 95,74 %
05.09.2016 16:44 22,8 C 25,0 C 21,1 C 66 % 0 lf 1020,1 hPa 0,0 l/m 0 min 0 min 127 W/m 10,5 km/h (2 Bft) 97,87 %
05.09.2016 16:46 22,8 C 25,0 C 21,1 C 66 % 0 lf 1020,2 hPa 0,0 l/m 0 min 0 min 127 W/m 6,3 km/h (2 Bft) 91,49 %
05.09.2016 16:48 22,8 C 24,4 C 20,6 C 66 % 0 lf 1020,2 hPa 0,0 l/m 0 min 0 min 130 W/m 10,5 km/h (2 Bft) 97,83 %
05.09.2016 16:50 22,7 C 24,4 C 20,6 C 66 % 0 lf 1020,2 hPa 0,0 l/m 0 min 0 min 127 W/m 10,5 km/h (2 Bft) 98,00 %
05.09.2016 16:52 22,7 C 23,9 C 20,6 C 66 % 0 lf 1020,3 hPa 0,0 l/m 0 min 0 min 124 W/m 8,4 km/h (2 Bft) 93,62 %
05.09.2016 16:54 22,6 C 23,3 C 20,6 C 67 % 0 lf 1020,3 hPa 0,0 l/m 0 min 0 min 132 W/m 4,2 km/h (1 Bft) 93,62 %
05.09.2016 16:56 22,6 C 23,9 C 20,6 C 67 % 0 lf 1020,1 hPa 0,0 l/m 0 min 0 min 149 W/m 6,3 km/h (2 Bft) 97,83 %
05.09.2016 16:58 22,6 C 25,6 C 21,1 C 67 % 0 lf 1020,2 hPa 0,0 l/m 0 min 0 min 204 W/m 4,2 km/h (1 Bft) 95,74 %
05.09.2016 17:00 22,5 C 27,2 C 21,1 C 67 % 0 lf 1020,2 hPa 0,0 l/m 2 min 0 min 489 W/m 10,5 km/h (2 Bft) 95,74 %
05.09.2016 17:02 22,6 C 28,9 C 21,7 C 69 % 0 lf 1020,3 hPa 0,0 l/m 2 min 0 min 476 W/m 8,4 km/h (2 Bft) 95,83 %
05.09.2016 17:04 22,6 C 27,8 C 22,2 C 69 % 0 lf 1020,3 hPa 0,0 l/m 2 min 0 min 350 W/m 12,6 km/h (3 Bft) 93,62 %
05.09.2016 17:06 22,6 C 26,7 C 21,7 C 68 % 0 lf 1020,3 hPa 0,0 l/m 2 min 0 min 226 W/m 12,6 km/h (3 Bft) 92,00 %
05.09.2016 17:08 22,6 C 26,1 C 21,7 C 68 % 0 lf 1020,3 hPa 0,0 l/m 2 min 0 min 225 W/m 10,5 km/h (2 Bft) 93,48 %
05.09.2016 17:10 22,6 C 25,6 C 21,7 C 68 % 0 lf 1020,4 hPa 0,0 l/m 2 min 0 min 229 W/m 8,4 km/h (2 Bft) 95,74 %
05.09.2016 17:12 22,6 C 26,1 C 21,7 C 68 % 0 lf 1020,4 hPa 0,0 l/m 2 min 0 min 255 W/m 10,5 km/h (2 Bft) 93,62 %
05.09.2016 17:14 22,6 C 27,2 C 21,7 C 67 % 0 lf 1020,4 hPa 0,0 l/m 2 min 0 min 290 W/m 8,4 km/h (2 Bft) 93,62 %
05.09.2016 17:16 22,7 C 27,8 C 21,7 C 67 % 0 lf 1020,3 hPa 0,0 l/m 2 min 0 min 385 W/m 8,4 km/h (2 Bft) 91,49 %
05.09.2016 17:18 22,7 C 27,8 C 21,7 C 67 % 0 lf 1020,3 hPa 0,0 l/m 2 min 0 min 359 W/m 10,5 km/h (2 Bft) 95,65 %
05.09.2016 17:20 22,7 C 27,2 C 21,7 C 66 % 0 lf 1020,4 hPa 0,0 l/m 2 min 0 min 346 W/m 10,5 km/h (2 Bft) 95,74 %
05.09.2016 17:22 22,8 C 27,2 C 21,7 C 66 % 0 lf 1020,3 hPa 0,0 l/m 2 min 0 min 240 W/m 6,3 km/h (2 Bft) 95,74 %
05.09.2016 17:24 22,8 C 27,2 C 21,7 C 67 % 0 lf 1020,3 hPa 0,0 l/m 2 min 0 min 210 W/m 6,3 km/h (2 Bft) 97,87 %
05.09.2016 17:26 22,8 C 26,7 C 21,7 C 67 % 0 lf 1020,3 hPa 0,0 l/m 2 min 0 min 207 W/m 12,6 km/h (3 Bft) 97,87 %
05.09.2016 17:28 22,8 C 26,1 C 21,7 C 67 % 0 lf 1020,3 hPa 0,0 l/m 0 min 0 min 168 W/m 12,6 km/h (3 Bft) 93,62 %
05.09.2016 17:30 22,8 C 25,6 C 21,1 C 66 % 0 lf 1020,4 hPa 0,0 l/m 0 min 0 min 180 W/m 12,6 km/h (3 Bft) 93,48 %
05.09.2016 17:32 22,8 C 25,0 C 21,1 C 66 % 0 lf 1020,3 hPa 0,0 l/m 0 min 0 min 176 W/m 8,4 km/h (2 Bft) 95,74 %
05.09.2016 17:34 22,8 C 24,4 C 21,1 C 66 % 0 lf 1020,3 hPa 0,0 l/m 0 min 0 min 190 W/m 14,6 km/h (3 Bft) 95,74 %
05.09.2016 17:36 22,8 C 24,4 C 21,1 C 66 % 0 lf 1020,3 hPa 0,0 l/m 2 min 0 min 194 W/m 8,4 km/h (2 Bft) 95,24 %
05.09.2016 17:38 22,8 C 25,0 C 21,1 C 66 % 0 lf 1020,4 hPa 0,0 l/m 2 min 0 min 275 W/m 10,5 km/h (2 Bft) 97,87 %
05.09.2016 17:40 22,8 C 25,0 C 21,7 C 66 % 0 lf 1020,3 hPa 0,0 l/m 2 min 0 min 330 W/m 8,4 km/h (2 Bft) 97,87 %
05.09.2016 17:42 22,8 C 25,6 C 21,7 C 66 % 0 lf 1020,3 hPa 0,0 l/m 2 min 0 min 304 W/m 8,4 km/h (2 Bft) 95,74 %
05.09.2016 17:44 22,8 C 25,6 C 21,7 C 67 % 0 lf 1020,3 hPa 0,0 l/m 2 min 0 min 300 W/m 10,5 km/h (2 Bft) 97,83 %
05.09.2016 17:46 22,8 C 25,0 C 21,7 C 66 % 0 lf 1020,3 hPa 0,0 l/m 2 min 0 min 315 W/m 8,4 km/h (2 Bft) 97,87 %
05.09.2016 17:48 22,8 C 24,4 C 21,1 C 66 % 0 lf 1020,3 hPa 0,0 l/m 2 min 0 min 218 W/m 8,4 km/h (2 Bft) 95,74 %
05.09.2016 17:50 22,8 C 24,4 C 21,1 C 67 % 0 lf 1020,4 hPa 0,0 l/m 0 min 0 min 160 W/m 10,5 km/h (2 Bft) 97,87 %
05.09.2016 17:52 22,8 C 23,9 C 21,1 C 67 % 0 lf 1020,3 hPa 0,0 l/m 0 min 0 min 171 W/m 12,6 km/h (3 Bft) 95,74 %
05.09.2016 17:54 22,8 C 24,4 C 21,1 C 66 % 0 lf 1020,4 hPa 0,0 l/m 0 min 0 min 166 W/m 10,5 km/h (2 Bft) 97,87 %
05.09.2016 17:56 22,8 C 25,0 C 21,1 C 67 % 0 lf 1020,4 hPa 0,0 l/m 2 min 0 min 240 W/m 8,4 km/h (2 Bft) 95,65 %
05.09.2016 17:58 22,7 C 25,0 C 21,1 C 67 % 0 lf 1020,4 hPa 0,0 l/m 2 min 0 min 206 W/m 6,3 km/h (2 Bft) 93,62 %
05.09.2016 18:00 22,8 C 24,4 C 21,1 C 67 % 0 lf 1020,4 hPa 0,0 l/m 2 min 0 min 199 W/m 8,4 km/h (2 Bft) 93,62 %
05.09.2016 18:02 22,7 C 25,0 C 21,1 C 67 % 0 lf 1020,4 hPa 0,0 l/m 2 min 0 min 259 W/m 10,5 km/h (2 Bft) 91,67 %
05.09.2016 18:04 22,7 C 26,1 C 21,1 C 67 % 0 lf 1020,4 hPa 0,0 l/m 2 min 0 min 283 W/m 6,3 km/h (2 Bft) 91,67 %
05.09.2016 18:06 22,7 C 26,1 C 21,1 C 66 % 0 lf 1020,4 hPa 0,0 l/m 2 min 0 min 295 W/m 8,4 km/h (2 Bft) 91,84 %
05.09.2016 18:08 22,8 C 26,7 C 21,1 C 67 % 0 lf 1020,4 hPa 0,0 l/m 2 min 0 min 280 W/m 8,4 km/h (2 Bft) 95,74 %
05.09.2016 18:10 22,8 C 26,1 C 21,1 C 66 % 0 lf 1020,4 hPa 0,0 l/m 2 min 0 min 281 W/m 10,5 km/h (2 Bft) 95,65 %
05.09.2016 18:12 22,8 C 26,1 C 21,1 C 66 % 0 lf 1020,4 hPa 0,0 l/m 2 min 0 min 256 W/m 10,5 km/h (2 Bft) 95,74 %
05.09.2016 18:14 22,8 C 26,1 C 21,1 C 66 % 0 lf 1020,4 hPa 0,0 l/m 2 min 0 min 252 W/m 10,5 km/h (2 Bft) 91,49 %
05.09.2016 18:16 22,8 C 25,0 C 20,6 C 66 % 0 lf 1020,3 hPa 0,0 l/m 2 min 0 min 216 W/m 12,6 km/h (3 Bft) 95,74 %
05.09.2016 18:18 22,8 C 24,4 C 20,6 C 65 % 0 lf 1020,4 hPa 0,0 l/m 2 min 0 min 181 W/m 10,5 km/h (2 Bft) 95,65 %
05.09.2016 18:20 22,8 C 23,9 C 20,6 C 65 % 0 lf 1020,3 hPa 0,0 l/m 2 min 0 min 167 W/m 10,5 km/h (2 Bft) 95,74 %
05.09.2016 18:22 22,7 C 23,9 C 20,6 C 65 % 0 lf 1020,4 hPa 0,0 l/m 2 min 0 min 154 W/m 6,3 km/h (2 Bft) 91,49 %
05.09.2016 18:24 22,7 C 23,9 C 20,6 C 65 % 0 lf 1020,3 hPa 0,0 l/m 2 min 0 min 212 W/m 4,2 km/h (1 Bft) 95,74 %
05.09.2016 18:26 22,7 C 23,9 C 20,6 C 66 % 0 lf 1020,4 hPa 0,0 l/m 2 min 0 min 193 W/m 12,6 km/h (3 Bft) 93,62 %
05.09.2016 18:28 22,7 C 23,3 C 20,6 C 65 % 0 lf 1020,4 hPa 0,0 l/m 2 min 0 min 169 W/m 10,5 km/h (2 Bft) 97,87 %
05.09.2016 18:30 22,7 C 23,3 C 20,6 C 66 % 0 lf 1020,4 hPa 0,0 l/m 2 min 0 min 186 W/m 8,4 km/h (2 Bft) 95,65 %
05.09.2016 18:32 22,7 C 23,3 C 20,6 C 66 % 0 lf 1020,4 hPa 0,0 l/m 2 min 0 min 176 W/m 6,3 km/h (2 Bft) 100,00 %
05.09.2016 18:34 22,7 C 23,3 C 20,6 C 67 % 0 lf 1020,4 hPa 0,0 l/m 2 min 0 min 152 W/m 8,4 km/h (2 Bft) 95,74 %
05.09.2016 18:36 22,6 C 23,3 C 20,6 C 66 % 0 lf 1020,4 hPa 0,0 l/m 2 min 0 min 146 W/m 8,4 km/h (2 Bft) 92,73 %
05.09.2016 18:38 22,6 C 23,3 C 20,6 C 67 % 0 lf 1020,4 hPa 0,0 l/m 2 min 0 min 173 W/m 2,1 km/h (1 Bft) 100,00 %
05.09.2016 18:40 22,6 C 23,3 C 20,6 C 67 % 0 lf 1020,5 hPa 0,0 l/m 2 min 0 min 170 W/m 6,3 km/h (2 Bft) 100,00 %
05.09.2016 18:42 22,6 C 23,3 C 20,6 C 67 % 0 lf 1020,4 hPa 0,0 l/m 2 min 0 min 166 W/m 8,4 km/h (2 Bft) 97,83 %
05.09.2016 18:44 22,6 C 23,3 C 20,6 C 67 % 0 lf 1020,4 hPa 0,0 l/m 2 min 0 min 152 W/m 8,4 km/h (2 Bft) 97,87 %
05.09.2016 18:46 22,5 C 22,8 C 20,0 C 67 % 0 lf 1020,4 hPa 0,0 l/m 2 min 0 min 147 W/m 6,3 km/h (2 Bft) 100,00 %
05.09.2016 18:48 22,5 C 22,8 C 20,0 C 67 % 0 lf 1020,4 hPa 0,0 l/m 2 min 0 min 138 W/m 8,4 km/h (2 Bft) 97,87 %
05.09.2016 18:50 22,5 C 22,8 C 20,0 C 67 % 0 lf 1020,4 hPa 0,0 l/m 2 min 0 min 149 W/m 4,2 km/h (1 Bft) 100,00 %
05.09.2016 18:52 22,4 C 22,8 C 20,0 C 67 % 0 lf 1020,4 hPa 0,0 l/m 2 min 0 min 146 W/m 6,3 km/h (2 Bft) 97,87 %
05.09.2016 18:54 22,4 C 22,8 C 20,0 C 66 % 0 lf 1020,4 hPa 0,0 l/m 2 min 0 min 136 W/m 6,3 km/h (2 Bft) 97,83 %
05.09.2016 18:56 22,4 C 22,8 C 20,0 C 66 % 0 lf 1020,4 hPa 0,0 l/m 2 min 0 min 135 W/m 8,4 km/h (2 Bft) 95,74 %
05.09.2016 18:58 22,4 C 22,8 C 20,0 C 66 % 0 lf 1020,4 hPa 0,0 l/m 2 min 0 min 136 W/m 6,3 km/h (2 Bft) 100,00 %
05.09.2016 19:00 22,4 C 22,8 C 20,0 C 66 % 0 lf 1020,4 hPa 0,0 l/m 2 min 0 min 133 W/m 4,2 km/h (1 Bft) 97,87 %
05.09.2016 19:02 22,3 C 22,8 C 20,0 C 66 % 0 lf 1020,5 hPa 0,0 l/m 2 min 0 min 100 W/m 6,3 km/h (2 Bft) 100,00 %
05.09.2016 19:04 22,3 C 22,8 C 20,0 C 66 % 0 lf 1020,5 hPa 0,0 l/m 2 min 0 min 94 W/m 6,3 km/h (2 Bft) 100,00 %
05.09.2016 19:06 22,3 C 22,8 C 20,0 C 66 % 0 lf 1020,5 hPa 0,0 l/m 2 min 0 min 91 W/m 6,3 km/h (2 Bft) 93,88 %
05.09.2016 19:08 22,3 C 22,8 C 20,0 C 66 % 0 lf 1020,5 hPa 0,0 l/m 2 min 0 min 88 W/m 2,1 km/h (1 Bft) 97,87 %
05.09.2016 19:10 22,3 C 22,2 C 20,0 C 67 % 0 lf 1020,4 hPa 0,0 l/m 2 min 0 min 87 W/m 8,4 km/h (2 Bft) 97,87 %
05.09.2016 19:12 22,2 C 22,2 C 20,0 C 66 % 0 lf 1020,5 hPa 0,0 l/m 2 min 0 min 86 W/m 8,4 km/h (2 Bft) 93,62 %
05.09.2016 19:14 22,2 C 22,2 C 20,0 C 66 % 0 lf 1020,5 hPa 0,0 l/m 2 min 0 min 86 W/m 4,2 km/h (1 Bft) 95,74 %
05.09.2016 19:16 22,2 C 22,2 C 19,4 C 67 % 0 lf 1020,5 hPa 0,0 l/m 2 min 0 min 84 W/m 4,2 km/h (1 Bft) 97,83 %
05.09.2016 19:18 22,2 C 22,2 C 19,4 C 67 % 0 lf 1020,6 hPa 0,0 l/m 2 min 0 min 83 W/m 6,3 km/h (2 Bft) 95,74 %
05.09.2016 19:20 22,2 C 22,2 C 20,0 C 67 % 0 lf 1020,6 hPa 0,0 l/m 2 min 0 min 78 W/m 6,3 km/h (2 Bft) 97,87 %
05.09.2016 19:22 22,2 C 22,2 C 20,0 C 67 % 0 lf 1020,6 hPa 0,0 l/m 2 min 0 min 72 W/m 6,3 km/h (2 Bft) 97,87 %
05.09.2016 19:24 22,2 C 22,2 C 19,4 C 67 % 0 lf 1020,6 hPa 0,0 l/m 2 min 0 min 68 W/m 6,3 km/h (2 Bft) 97,87 %
05.09.2016 19:26 22,2 C 22,2 C 19,4 C 67 % 0 lf 1020,7 hPa 0,0 l/m 2 min 0 min 65 W/m 6,3 km/h (2 Bft) 93,62 %
05.09.2016 19:28 22,1 C 22,2 C 18,9 C 68 % 0 lf 1020,7 hPa 0,0 l/m 2 min 0 min 62 W/m 4,2 km/h (1 Bft) 93,48 %
05.09.2016 19:30 22,1 C 21,7 C 18,9 C 68 % 0 lf 1020,7 hPa 0,0 l/m 2 min 0 min 62 W/m 6,3 km/h (2 Bft) 97,87 %
05.09.2016 19:32 22,1 C 21,7 C 19,4 C 67 % 0 lf 1020,8 hPa 0,0 l/m 2 min 0 min 61 W/m 8,4 km/h (2 Bft) 93,62 %
05.09.2016 19:34 22,1 C 21,7 C 19,4 C 67 % 0 lf 1020,7 hPa 0,0 l/m 2 min 0 min 60 W/m 6,3 km/h (2 Bft) 97,87 %
05.09.2016 19:36 22,0 C 21,7 C 19,4 C 67 % 0 lf 1020,8 hPa 0,0 l/m 2 min 0 min 58 W/m 6,3 km/h (2 Bft) 92,86 %
05.09.2016 19:38 21,9 C 21,7 C 19,4 C 67 % 0 lf 1020,8 hPa 0,0 l/m 2 min 0 min 55 W/m 4,2 km/h (1 Bft) 97,87 %
05.09.2016 19:40 21,9 C 21,7 C 19,4 C 67 % 0 lf 1020,8 hPa 0,0 l/m 2 min 0 min 52 W/m 4,2 km/h (1 Bft) 97,83 %
05.09.2016 19:42 21,9 C 21,1 C 18,9 C 67 % 0 lf 1020,8 hPa 0,0 l/m 2 min 0 min 48 W/m 6,3 km/h (2 Bft) 97,87 %
05.09.2016 19:44 21,9 C 21,1 C 18,9 C 67 % 0 lf 1020,8 hPa 0,0 l/m 2 min 0 min 46 W/m 4,2 km/h (1 Bft) 100,00 %
05.09.2016 19:46 21,9 C 21,1 C 18,9 C 67 % 0 lf 1020,8 hPa 0,0 l/m 2 min 0 min 42 W/m 2,1 km/h (1 Bft) 95,74 %
05.09.2016 19:48 21,8 C 21,1 C 18,3 C 68 % 0 lf 1020,9 hPa 0,0 l/m 2 min 0 min 39 W/m 4,2 km/h (1 Bft) 95,74 %
05.09.2016 19:50 21,8 C 21,1 C 18,3 C 68 % 0 lf 1020,9 hPa 0,0 l/m 2 min 0 min 36 W/m 4,2 km/h (1 Bft) 95,74 %
05.09.2016 19:52 21,8 C 20,6 C 17,8 C 69 % 0 lf 1020,9 hPa 0,0 l/m 2 min 0 min 33 W/m 2,1 km/h (1 Bft) 97,87 %
05.09.2016 19:54 21,8 C 20,6 C 17,8 C 69 % 0 lf 1020,9 hPa 0,0 l/m 2 min 0 min 32 W/m 2,1 km/h (1 Bft) 100,00 %
05.09.2016 19:56 21,7 C 20,0 C 17,2 C 70 % 0 lf 1020,9 hPa 0,0 l/m 2 min 0 min 29 W/m 2,1 km/h (1 Bft) 95,74 %
05.09.2016 19:58 21,7 C 20,0 C 17,2 C 71 % 0 lf 1020,9 hPa 0,0 l/m 2 min 0 min 27 W/m 0,0 km/h (0 Bft) 97,87 %
05.09.2016 20:00 21,7 C 20,0 C 17,2 C 70 % 0 lf 1021,0 hPa 0,0 l/m 0 min 0 min 26 W/m 0,0 km/h (0 Bft) 97,87 %
05.09.2016 20:02 21,7 C 19,4 C 17,2 C 71 % 0 lf 1020,9 hPa 0,0 l/m 0 min 0 min 24 W/m 0,0 km/h (0 Bft) 96,00 %
05.09.2016 20:04 21,6 C 19,4 C 16,7 C 71 % 0 lf 1021,0 hPa 0,0 l/m 0 min 0 min 22 W/m 0,0 km/h (0 Bft) 97,83 %
05.09.2016 20:06 21,6 C 19,4 C 16,7 C 71 % 0 lf 1021,0 hPa 0,0 l/m 0 min 0 min 21 W/m 0,0 km/h (0 Bft) 95,92 %
05.09.2016 20:08 21,5 C 19,4 C 16,7 C 72 % 0 lf 1021,0 hPa 0,0 l/m 0 min 0 min 20 W/m 0,0 km/h (0 Bft) 97,87 %
05.09.2016 20:10 21,4 C 18,9 C 16,7 C 72 % 0 lf 1021,0 hPa 0,0 l/m 0 min 0 min 19 W/m 0,0 km/h (0 Bft) 97,87 %
05.09.2016 20:12 21,4 C 18,9 C 16,7 C 73 % 0 lf 1021,0 hPa 0,0 l/m 0 min 0 min 17 W/m 0,0 km/h (0 Bft) 95,74 %
05.09.2016 20:14 21,3 C 18,9 C 16,1 C 73 % 0 lf 1021,0 hPa 0,0 l/m 0 min 0 min 15 W/m 0,0 km/h (0 Bft) 95,74 %
05.09.2016 20:16 21,3 C 18,9 C 16,1 C 73 % 0 lf 1021,1 hPa 0,0 l/m 0 min 0 min 14 W/m 0,0 km/h (0 Bft) 97,83 %
05.09.2016 20:18 21,2 C 18,9 C 16,1 C 73 % 0 lf 1021,1 hPa 0,0 l/m 0 min 0 min 13 W/m 0,0 km/h (0 Bft) 97,87 %
05.09.2016 20:20 21,1 C 18,9 C 16,1 C 74 % 0 lf 1021,1 hPa 0,0 l/m 0 min 0 min 12 W/m 0,0 km/h (0 Bft) 97,87 %
05.09.2016 20:22 21,1 C 18,3 C 16,1 C 74 % 0 lf 1021,2 hPa 0,0 l/m 0 min 0 min 12 W/m 0,0 km/h (0 Bft) 97,87 %
05.09.2016 20:24 21,0 C 18,3 C 16,1 C 74 % 0 lf 1021,2 hPa 0,0 l/m 0 min 0 min 11 W/m 0,0 km/h (0 Bft) 97,87 %
05.09.2016 20:26 20,9 C 18,3 C 15,6 C 75 % 0 lf 1021,3 hPa 0,0 l/m 0 min 0 min 0 W/m 0,0 km/h (0 Bft) 97,83 %
05.09.2016 20:28 20,8 C 18,3 C 15,6 C 75 % 0 lf 1021,3 hPa 0,0 l/m 0 min 0 min 0 W/m 0,0 km/h (0 Bft) 95,74 %
05.09.2016 20:30 20,7 C 17,8 C 15,6 C 75 % 0 lf 1021,3 hPa 0,0 l/m 0 min 0 min 0 W/m 0,0 km/h (0 Bft) 93,62 %
05.09.2016 20:32 20,6 C 17,8 C 15,6 C 76 % 0 lf 1021,3 hPa 0,0 l/m 0 min 0 min 5 W/m 0,0 km/h (0 Bft) 95,74 %
05.09.2016 20:34 20,5 C 17,8 C 15,6 C 76 % 0 lf 1021,4 hPa 0,0 l/m 0 min 0 min 5 W/m 0,0 km/h (0 Bft) 95,74 %
05.09.2016 20:36 20,4 C 17,8 C 15,6 C 76 % 0 lf 1021,4 hPa 0,0 l/m 0 min 0 min 5 W/m 0,0 km/h (0 Bft) 97,14 %
05.09.2016 20:38 20,3 C 17,8 C 15,0 C 76 % 0 lf 1021,4 hPa 0,0 l/m 0 min 0 min 5 W/m 0,0 km/h (0 Bft) 97,87 %
05.09.2016 20:40 20,2 C 17,8 C 15,0 C 76 % 0 lf 1021,4 hPa 0,0 l/m 0 min 0 min 5 W/m 0,0 km/h (0 Bft) 97,87 %
05.09.2016 20:42 20,2 C 17,8 C 15,0 C 76 % 0 lf 1021,4 hPa 0,0 l/m 0 min 0 min 5 W/m 0,0 km/h (0 Bft) 95,65 %
05.09.2016 20:44 20,1 C 17,2 C 15,0 C 77 % 0 lf 1021,5 hPa 0,0 l/m 0 min 0 min 5 W/m 0,0 km/h (0 Bft) 95,74 %
05.09.2016 20:46 19,9 C 17,2 C 15,0 C 77 % 1 lf 1021,5 hPa 0,0 l/m 0 min 0 min 5 W/m 0,0 km/h (0 Bft) 93,62 %
05.09.2016 20:48 19,9 C 17,2 C 15,0 C 77 % 1 lf 1021,5 hPa 0,0 l/m 0 min 0 min 5 W/m 0,0 km/h (0 Bft) 95,74 %
05.09.2016 20:50 19,8 C 17,2 C 15,0 C 77 % 1 lf 1021,5 hPa 0,0 l/m 0 min 0 min 5 W/m 0,0 km/h (0 Bft) 95,74 %
05.09.2016 20:52 19,7 C 17,2 C 15,0 C 78 % 1 lf 1021,6 hPa 0,0 l/m 0 min 0 min 5 W/m 0,0 km/h (0 Bft) 95,74 %
05.09.2016 20:54 19,6 C 17,2 C 15,0 C 78 % 1 lf 1021,7 hPa 0,0 l/m 0 min 0 min 5 W/m 0,0 km/h (0 Bft) 91,30 %
05.09.2016 20:56 19,5 C 17,2 C 14,4 C 78 % 1 lf 1021,7 hPa 0,0 l/m 0 min 0 min 5 W/m 0,0 km/h (0 Bft) 93,62 %
05.09.2016 20:58 19,4 C 17,2 C 14,4 C 78 % 1 lf 1021,7 hPa 0,0 l/m 0 min 0 min 5 W/m 0,0 km/h (0 Bft) 91,49 %
05.09.2016 21:00 19,4 C 16,7 C 14,4 C 79 % 1 lf 1021,8 hPa 0,0 l/m 0 min 0 min 5 W/m 0,0 km/h (0 Bft) 95,74 %
05.09.2016 21:02 19,3 C 16,7 C 14,4 C 79 % 1 lf 1021,9 hPa 0,0 l/m 0 min 0 min 5 W/m 0,0 km/h (0 Bft) 96,30 %
05.09.2016 21:04 19,2 C 16,7 C 14,4 C 79 % 1 lf 1021,8 hPa 0,0 l/m 0 min 0 min 5 W/m 0,0 km/h (0 Bft) 95,65 %
05.09.2016 21:06 19,2 C 16,7 C 14,4 C 79 % 1 lf 1021,8 hPa 0,0 l/m 0 min 0 min 5 W/m 0,0 km/h (0 Bft) 94,00 %
05.09.2016 21:08 19,1 C 16,7 C 14,4 C 80 % 1 lf 1021,9 hPa 0,0 l/m 0 min 0 min 5 W/m 0,0 km/h (0 Bft) 89,36 %
05.09.2016 21:10 19,0 C 16,7 C 14,4 C 80 % 1 lf 1021,9 hPa 0,0 l/m 0 min 0 min 5 W/m 0,0 km/h (0 Bft) 91,49 %
05.09.2016 21:12 18,9 C 16,7 C 14,4 C 80 % 1 lf 1021,9 hPa 0,0 l/m 0 min 0 min 5 W/m 0,0 km/h (0 Bft) 91,49 %
05.09.2016 21:14 18,8 C 16,1 C 14,4 C 81 % 1 lf 1021,9 hPa 0,0 l/m 0 min 0 min 5 W/m 0,0 km/h (0 Bft) 89,13 %
05.09.2016 21:16 18,7 C 16,1 C 14,4 C 80 % 1 lf 1021,9 hPa 0,0 l/m 0 min 0 min 5 W/m 0,0 km/h (0 Bft) 91,49 %
05.09.2016 21:18 18,7 C 16,1 C 14,4 C 81 % 1 lf 1021,9 hPa 0,0 l/m 0 min 0 min 5 W/m 0,0 km/h (0 Bft) 93,62 %
05.09.2016 21:20 18,6 C 16,1 C 13,9 C 81 % 1 lf 1022,0 hPa 0,0 l/m 0 min 0 min 5 W/m 0,0 km/h (0 Bft) 93,62 %
05.09.2016 21:22 18,5 C 16,1 C 13,9 C 81 % 1 lf 1022,0 hPa 0,0 l/m 0 min 0 min 5 W/m 0,0 km/h (0 Bft) 93,62 %
05.09.2016 21:24 18,5 C 16,7 C 13,9 C 81 % 1 lf 1022,0 hPa 0,0 l/m 0 min 0 min 5 W/m 0,0 km/h (0 Bft) 93,62 %
05.09.2016 21:26 18,4 C 16,7 C 13,9 C 81 % 1 lf 1021,9 hPa 0,0 l/m 0 min 0 min 5 W/m 0,0 km/h (0 Bft) 97,83 %
05.09.2016 21:28 18,3 C 16,1 C 13,9 C 81 % 1 lf 1022,0 hPa 0,0 l/m 0 min 0 min 5 W/m 0,0 km/h (0 Bft) 95,74 %
05.09.2016 21:30 18,3 C 16,1 C 13,9 C 81 % 1 lf 1022,0 hPa 0,0 l/m 0 min 0 min 5 W/m 0,0 km/h (0 Bft) 95,74 %
05.09.2016 21:32 18,2 C 16,1 C 13,9 C 82 % 1 lf 1022,0 hPa 0,0 l/m 0 min 0 min 5 W/m 0,0 km/h (0 Bft) 95,74 %
05.09.2016 21:34 18,1 C 15,6 C 13,9 C 82 % 1 lf 1022,1 hPa 0,0 l/m 0 min 0 min 5 W/m 0,0 km/h (0 Bft) 93,62 %
05.09.2016 21:36 18,1 C 15,6 C 13,9 C 82 % 1 lf 1022,2 hPa 0,0 l/m 0 min 0 min 5 W/m 0,0 km/h (0 Bft) 95,92 %
05.09.2016 21:38 18,0 C 15,6 C 13,9 C 82 % 1 lf 1022,3 hPa 0,0 l/m 0 min 0 min 5 W/m 0,0 km/h (0 Bft) 95,65 %
05.09.2016 21:40 17,9 C 15,6 C 13,9 C 83 % 1 lf 1022,2 hPa 0,0 l/m 0 min 0 min 5 W/m 0,0 km/h (0 Bft) 91,49 %
05.09.2016 21:42 17,9 C 15,6 C 13,9 C 83 % 2 lf 1022,4 hPa 0,0 l/m 0 min 0 min 5 W/m 0,0 km/h (0 Bft) 97,87 %
05.09.2016 21:44 17,8 C 15,6 C 13,9 C 83 % 2 lf 1022,4 hPa 0,0 l/m 0 min 0 min 5 W/m 0,0 km/h (0 Bft) 97,87 %
05.09.2016 21:46 17,8 C 15,6 C 13,9 C 83 % 2 lf 1022,4 hPa 0,0 l/m 0 min 0 min 5 W/m 0,0 km/h (0 Bft) 91,49 %
05.09.2016 21:48 17,7 C 15,6 C 13,9 C 84 % 2 lf 1022,5 hPa 0,0 l/m 0 min 0 min 5 W/m 0,0 km/h (0 Bft) 97,83 %
05.09.2016 21:50 17,7 C 15,6 C 13,9 C 84 % 2 lf 1022,5 hPa 0,0 l/m 0 min 0 min 5 W/m 0,0 km/h (0 Bft) 97,87 %
05.09.2016 21:52 17,6 C 15,6 C 13,9 C 84 % 2 lf 1022,4 hPa 0,0 l/m 0 min 0 min 5 W/m 0,0 km/h (0 Bft) 100,00 %
05.09.2016 21:54 17,6 C 15,6 C 13,9 C 84 % 2 lf 1022,5 hPa 0,0 l/m 0 min 0 min 5 W/m 0,0 km/h (0 Bft) 100,00 %
05.09.2016 21:56 17,5 C 15,6 C 13,9 C 84 % 2 lf 1022,5 hPa 0,0 l/m 0 min 0 min 5 W/m 0,0 km/h (0 Bft) 100,00 %
05.09.2016 21:58 17,5 C 15,6 C 13,9 C 84 % 2 lf 1022,4 hPa 0,0 l/m 0 min 0 min 5 W/m 0,0 km/h (0 Bft) 100,00 %
05.09.2016 22:00 17,4 C 15,6 C 13,9 C 84 % 2 lf 1022,5 hPa 0,0 l/m 0 min 0 min 5 W/m 0,0 km/h (0 Bft) 97,83 %
05.09.2016 22:02 17,4 C 15,6 C 13,9 C 84 % 2 lf 1022,4 hPa 0,0 l/m 0 min 0 min 5 W/m 0,0 km/h (0 Bft) 91,49 %
05.09.2016 22:04 17,3 C 15,6 C 13,9 C 84 % 2 lf 1022,5 hPa 0,0 l/m 0 min 0 min 5 W/m 0,0 km/h (0 Bft) 100,00 %
05.09.2016 22:06 17,3 C 15,6 C 13,9 C 85 % 2 lf 1022,5 hPa 0,0 l/m 0 min 0 min 5 W/m 0,0 km/h (0 Bft) 100,00 %
05.09.2016 22:08 17,2 C 15,6 C 13,3 C 85 % 3 lf 1022,5 hPa 0,0 l/m 0 min 0 min 5 W/m 0,0 km/h (0 Bft) 100,00 %
05.09.2016 22:10 17,2 C 15,0 C 13,3 C 85 % 3 lf 1022,5 hPa 0,0 l/m 0 min 0 min 5 W/m 0,0 km/h (0 Bft) 93,62 %
05.09.2016 22:12 17,1 C 15,0 C 13,3 C 85 % 3 lf 1022,5 hPa 0,0 l/m 0 min 0 min 5 W/m 0,0 km/h (0 Bft) 100,00 %
05.09.2016 22:14 17,1 C 15,0 C 13,3 C 86 % 3 lf 1022,5 hPa 0,0 l/m 0 min 0 min 5 W/m 0,0 km/h (0 Bft) 100,00 %
05.09.2016 22:16 17,0 C 15,0 C 13,3 C 86 % 3 lf 1022,5 hPa 0,0 l/m 0 min 0 min 5 W/m 0,0 km/h (0 Bft) 100,00 %
05.09.2016 22:18 17,0 C 15,0 C 13,3 C 86 % 3 lf 1022,5 hPa 0,0 l/m 0 min 0 min 5 W/m 0,0 km/h (0 Bft) 100,00 %
05.09.2016 22:20 16,9 C 15,0 C 13,3 C 86 % 3 lf 1022,5 hPa 0,0 l/m 0 min 0 min 5 W/m 0,0 km/h (0 Bft) 97,87 %
05.09.2016 22:22 16,9 C 15,0 C 13,3 C 86 % 3 lf 1022,5 hPa 0,0 l/m 0 min 0 min 5 W/m 0,0 km/h (0 Bft) 95,74 %
05.09.2016 22:24 16,8 C 15,0 C 13,3 C 86 % 3 lf 1022,5 hPa 0,0 l/m 0 min 0 min 5 W/m 0,0 km/h (0 Bft) 100,00 %
05.09.2016 22:26 16,8 C 15,0 C 13,3 C 86 % 3 lf 1022,5 hPa 0,0 l/m 0 min 0 min 5 W/m 0,0 km/h (0 Bft) 100,00 %
05.09.2016 22:28 16,8 C 15,0 C 13,3 C 86 % 3 lf 1022,6 hPa 0,0 l/m 0 min 0 min 5 W/m 0,0 km/h (0 Bft) 100,00 %
05.09.2016 22:30 16,7 C 15,0 C 13,3 C 87 % 3 lf 1022,6 hPa 0,0 l/m 0 min 0 min 5 W/m 0,0 km/h (0 Bft) 100,00 %
05.09.2016 22:32 16,7 C 15,0 C 13,3 C 87 % 3 lf 1022,6 hPa 0,0 l/m 0 min 0 min 5 W/m 0,0 km/h (0 Bft) 97,87 %
05.09.2016 22:34 16,7 C 15,0 C 13,3 C 87 % 3 lf 1022,6 hPa 0,0 l/m 0 min 0 min 5 W/m 0,0 km/h (0 Bft) 98,11 %
05.09.2016 22:36 16,6 C 15,0 C 13,3 C 87 % 3 lf 1022,6 hPa 0,0 l/m 0 min 0 min 5 W/m 0,0 km/h (0 Bft) 98,08 %
05.09.2016 22:38 16,6 C 14,4 C 13,3 C 87 % 3 lf 1022,7 hPa 0,0 l/m 0 min 0 min 5 W/m 0,0 km/h (0 Bft) 100,00 %
05.09.2016 22:40 16,5 C 15,0 C 13,3 C 87 % 3 lf 1022,7 hPa 0,0 l/m 0 min 0 min 5 W/m 0,0 km/h (0 Bft) 97,87 %
05.09.2016 22:42 16,5 C 15,0 C 13,3 C 87 % 4 lf 1022,7 hPa 0,0 l/m 0 min 0 min 5 W/m 0,0 km/h (0 Bft) 95,74 %
05.09.2016 22:44 16,4 C 15,0 C 13,3 C 87 % 4 lf 1022,7 hPa 0,0 l/m 0 min 0 min 5 W/m 0,0 km/h (0 Bft) 95,74 %
05.09.2016 22:46 16,4 C 14,4 C 13,3 C 87 % 4 lf 1022,6 hPa 0,0 l/m 0 min 0 min 5 W/m 0,0 km/h (0 Bft) 97,87 %
05.09.2016 22:48 16,3 C 14,4 C 13,3 C 87 % 4 lf 1022,6 hPa 0,0 l/m 0 min 0 min 5 W/m 0,0 km/h (0 Bft) 95,65 %
05.09.2016 22:50 16,3 C 14,4 C 13,3 C 87 % 4 lf 1022,7 hPa 0,0 l/m 0 min 0 min 5 W/m 0,0 km/h (0 Bft) 95,74 %
05.09.2016 22:52 16,3 C 14,4 C 12,8 C 87 % 4 lf 1022,6 hPa 0,0 l/m 0 min 0 min 5 W/m 0,0 km/h (0 Bft) 97,87 %
05.09.2016 22:54 16,2 C 15,0 C 12,8 C 87 % 4 lf 1022,7 hPa 0,0 l/m 0 min 0 min 5 W/m 0,0 km/h (0 Bft) 93,62 %
05.09.2016 22:56 16,2 C 15,0 C 12,8 C 88 % 4 lf 1022,7 hPa 0,0 l/m 0 min 0 min 5 W/m 0,0 km/h (0 Bft) 97,87 %
05.09.2016 22:58 16,2 C 14,4 C 12,8 C 88 % 5 lf 1022,7 hPa 0,0 l/m 0 min 0 min 5 W/m 0,0 km/h (0 Bft) 97,83 %
05.09.2016 23:00 16,1 C 14,4 C 12,8 C 88 % 5 lf 1022,7 hPa 0,0 l/m 0 min 0 min 5 W/m 0,0 km/h (0 Bft) 97,87 %
05.09.2016 23:02 16,1 C 14,4 C 12,8 C 88 % 6 lf 1022,8 hPa 0,0 l/m 0 min 0 min 5 W/m 0,0 km/h (0 Bft) 95,74 %
05.09.2016 23:04 16,1 C 14,4 C 12,8 C 88 % 7 lf 1022,8 hPa 0,0 l/m 0 min 0 min 5 W/m 0,0 km/h (0 Bft) 91,49 %
05.09.2016 23:06 16,0 C 14,4 C 12,8 C 88 % 7 lf 1022,9 hPa 0,0 l/m 0 min 0 min 5 W/m 0,0 km/h (0 Bft) 95,24 %
05.09.2016 23:08 16,0 C 14,4 C 12,8 C 88 % 8 lf 1022,9 hPa 0,0 l/m 0 min 0 min 5 W/m 0,0 km/h (0 Bft) 93,62 %
05.09.2016 23:10 15,9 C 13,9 C 12,8 C 88 % 9 lf 1022,9 hPa 0,0 l/m 0 min 0 min 5 W/m 0,0 km/h (0 Bft) 93,62 %
05.09.2016 23:12 15,9 C 13,9 C 12,8 C 88 % 9 lf 1022,9 hPa 0,0 l/m 0 min 0 min 5 W/m 0,0 km/h (0 Bft) 95,65 %
05.09.2016 23:14 15,9 C 13,9 C 12,8 C 88 % 9 lf 1022,9 hPa 0,0 l/m 0 min 0 min 5 W/m 0,0 km/h (0 Bft) 93,62 %
05.09.2016 23:16 15,8 C 14,4 C 12,8 C 88 % 10 lf 1022,9 hPa 0,0 l/m 0 min 0 min 5 W/m 0,0 km/h (0 Bft) 91,49 %
05.09.2016 23:18 15,8 C 14,4 C 12,8 C 88 % 10 lf 1022,9 hPa 0,0 l/m 0 min 0 min 5 W/m 0,0 km/h (0 Bft) 91,49 %
05.09.2016 23:20 15,8 C 14,4 C 12,8 C 89 % 10 lf 1022,9 hPa 0,0 l/m 0 min 0 min 5 W/m 0,0 km/h (0 Bft) 95,74 %
05.09.2016 23:22 15,7 C 14,4 C 12,8 C 89 % 10 lf 1022,9 hPa 0,0 l/m 0 min 0 min 5 W/m 0,0 km/h (0 Bft) 95,74 %
05.09.2016 23:24 15,7 C 14,4 C 12,8 C 89 % 11 lf 1022,9 hPa 0,0 l/m 0 min 0 min 5 W/m 0,0 km/h (0 Bft) 95,65 %
05.09.2016 23:26 15,7 C 14,4 C 12,8 C 89 % 11 lf 1022,9 hPa 0,0 l/m 0 min 0 min 5 W/m 0,0 km/h (0 Bft) 97,87 %
05.09.2016 23:28 15,7 C 14,4 C 12,8 C 89 % 11 lf 1022,9 hPa 0,0 l/m 0 min 0 min 5 W/m 0,0 km/h (0 Bft) 95,74 %
05.09.2016 23:30 15,7 C 14,4 C 12,8 C 89 % 12 lf 1022,9 hPa 0,0 l/m 0 min 0 min 5 W/m 0,0 km/h (0 Bft) 97,87 %
05.09.2016 23:32 15,6 C 14,4 C 12,8 C 89 % 12 lf 1022,9 hPa 0,0 l/m 0 min 0 min 5 W/m 0,0 km/h (0 Bft) 95,74 %
05.09.2016 23:34 15,6 C 14,4 C 12,8 C 89 % 12 lf 1022,9 hPa 0,0 l/m 0 min 0 min 5 W/m 0,0 km/h (0 Bft) 95,74 %
05.09.2016 23:36 15,6 C 14,4 C 12,8 C 89 % 13 lf 1023,0 hPa 0,0 l/m 0 min 0 min 5 W/m 0,0 km/h (0 Bft) 97,96 %
05.09.2016 23:38 15,6 C 14,4 C 12,8 C 89 % 13 lf 1022,9 hPa 0,0 l/m 0 min 0 min 5 W/m 0,0 km/h (0 Bft) 95,74 %
05.09.2016 23:40 15,5 C 14,4 C 12,8 C 90 % 13 lf 1023,0 hPa 0,0 l/m 0 min 0 min 5 W/m 0,0 km/h (0 Bft) 97,87 %
05.09.2016 23:42 15,5 C 14,4 C 12,8 C 90 % 13 lf 1023,0 hPa 0,0 l/m 0 min 0 min 5 W/m 0,0 km/h (0 Bft) 97,87 %
05.09.2016 23:44 15,4 C 14,4 C 12,8 C 90 % 14 lf 1023,1 hPa 0,0 l/m 0 min 0 min 5 W/m 0,0 km/h (0 Bft) 91,49 %
05.09.2016 23:46 15,4 C 14,4 C 12,8 C 90 % 14 lf 1023,0 hPa 0,0 l/m 0 min 0 min 5 W/m 0,0 km/h (0 Bft) 97,83 %
05.09.2016 23:48 15,4 C 14,4 C 12,8 C 90 % 14 lf 1023,0 hPa 0,0 l/m 0 min 0 min 5 W/m 0,0 km/h (0 Bft) 97,87 %
05.09.2016 23:50 15,4 C 14,4 C 12,8 C 90 % 14 lf 1023,1 hPa 0,0 l/m 0 min 0 min 5 W/m 0,0 km/h (0 Bft) 97,87 %
05.09.2016 23:52 15,3 C 14,4 C 12,8 C 90 % 15 lf 1023,1 hPa 0,0 l/m 0 min 0 min 5 W/m 0,0 km/h (0 Bft) 95,74 %
05.09.2016 23:54 15,3 C 14,4 C 12,8 C 90 % 15 lf 1023,1 hPa 0,0 l/m 0 min 0 min 5 W/m 0,0 km/h (0 Bft) 95,74 %
05.09.2016 23:56 15,3 C 14,4 C 12,2 C 90 % 15 lf 1023,1 hPa 0,0 l/m 0 min 0 min 5 W/m 0,0 km/h (0 Bft) 93,62 %
05.09.2016 23:58 15,3 C 14,4 C 12,8 C 90 % 15 lf 1023,1 hPa 0,0 l/m 0 min 0 min 5 W/m 0,0 km/h (0 Bft) 95,65 %
_ Min-Zeit 07:38 23:10 23:56 18:18 08:54 00:00 - - - - 19:58 04:06
Minimum _ 14,9 C 13,9 C 12,2 C 65 % 0 lf 1013,2 hPa - - - - 0,0 km/h (0 Bft) 86,96 %
_ Max-Zeit 16:28 15:10 12:10 05:52 00:05 23:44 03:14 07:08 00:00 11:30 00:20 00:02
Maximum _ 22,9 C 33,9 C 27,8 C 96 % 15 lf 1023,1 hPa 0,2 l/m 2 min 2 min 822 W/m 31,4 km/h
W-NW (5 Bft)
100,00 %
Durchschnitt _ 18,6 C 20,2 C 17,6 C 83 % 2 lf 1018,2 hPa #0,2 l/m #8:54 h #32 min. 164 W/m 10,9 km/h (2 Bft) 96,21 %
© 2016 W. Hausmann